M I D A S
Marine Information and Data Acquisition System
Tripno 1932 of the Zeeleeuw from 2010-08-05 06:40:01 to 2010-08-05 14:38:50
Back to CruiseResearch ActivitiesStationsMapUnderway DataData graphs

EquipmentUnitsComment
TimeDGPSUTC
LatitudeDGPSDM.mWGS84
LongitudeDGPSDM.mWGS84
TemperatureSBE03/SBE38deg celciusITS90
ConductivitySBE21S/mITS90
SalinitySBE21 Practical Salinity Units
ChlorophylAChelsea fluorimeterg/lCalibrated in Aceton
Missing or incorrect values are displayed as -999
Sea surface data collected by the RV Zeeleeuw from 2010-08-05 02:50:21 to 2010-08-05 14:42:14
                                                                                    Next 1000 lines
Time Latitude Longitude Temperature Conductivity Salinity ChlorophylA
2010-08-05 02:50:31 51°13.657 2°55.962 22.4997 0.076503 0.399409 -1.000568
2010-08-05 02:50:36 51°13.659 2°55.962 22.499 0.076503 0.399409 -1.000568
2010-08-05 02:50:41 51°13.66 2°55.962 22.4993 0.076503 0.399409 -1.000568
2010-08-05 02:50:46 51°13.662 2°55.962 22.4991 0.076503 0.399403 -1.000568
2010-08-05 02:50:51 51°13.663 2°55.961 22.4993 0.076503 0.399403 -1.000568
2010-08-05 02:50:56 51°13.664 2°55.961 22.499 0.076503 0.399415 -0.965744
2010-08-05 02:51:01 51°13.664 2°55.961 22.4996 0.076503 0.399409 -1.000568
2010-08-05 02:51:06 51°13.664 2°55.961 22.4989 0.076503 0.399415 -0.965744
2010-08-05 02:51:10 51°13.664 2°55.961 22.4991 0.076503 0.399409 -1.000568
2010-08-05 02:51:16 51°13.665 2°55.961 22.4989 0.076503 0.399415 -1.000568
2010-08-05 02:51:21 51°13.665 2°55.961 22.4984 0.076503 0.399415 -1.000568
2010-08-05 02:51:26 51°13.665 2°55.961 22.4984 0.076503 0.399415 -1.000568
2010-08-05 02:51:30 51°13.665 2°55.961 22.4985 0.076503 0.399415 -1.000568
2010-08-05 02:51:36 51°13.665 2°55.961 22.4981 0.076503 0.399421 -1.000568
2010-08-05 02:51:41 51°13.665 2°55.961 22.498 0.076503 0.399421 -1.000568
2010-08-05 02:51:46 51°13.665 2°55.961 22.498 0.076503 0.399415 -1.000568
2010-08-05 02:51:50 51°13.665 2°55.961 22.4984 0.076503 0.399415 -1.000568
2010-08-05 02:51:56 51°13.665 2°55.961 22.498 0.076503 0.399421 -1.000568
2010-08-05 02:52:01 51°13.665 2°55.961 22.4981 0.076503 0.399421 -1.000568
2010-08-05 02:52:06 51°13.662 2°55.962 22.4981 0.076503 0.399421 -0.965744
2010-08-05 02:52:11 51°13.661 2°55.962 22.4983 0.076503 0.399421 -0.965744
2010-08-05 02:52:16 51°13.66 2°55.961 22.498 0.076503 0.399421 -1.000568
2010-08-05 02:52:21 51°13.66 2°55.961 22.4977 0.076503 0.399421 -1.000568
2010-08-05 02:52:26 51°13.659 2°55.961 22.4982 0.076503 0.399421 -0.965744
2010-08-05 02:52:30 51°13.659 2°55.961 22.4979 0.076503 0.399421 -1.000568
2010-08-05 02:52:36 51°13.659 2°55.961 22.4977 0.076503 0.399421 -1.000568
2010-08-05 02:52:41 51°13.659 2°55.961 22.4981 0.076503 0.399421 -1.000568
2010-08-05 02:52:46 51°13.659 2°55.961 22.4983 0.076503 0.399427 -0.965744
2010-08-05 02:52:50 51°13.657 2°55.961 22.4984 0.076503 0.399427 -0.965744
2010-08-05 02:52:56 51°13.658 2°55.961 22.498 0.076503 0.399427 -1.000568
2010-08-05 02:53:01 51°13.658 2°55.962 22.498 0.076503 0.399433 -1.000568
2010-08-05 02:53:06 51°13.659 2°55.962 22.498 0.076503 0.399433 -1.000568
2010-08-05 02:53:11 51°13.659 2°55.962 22.4977 0.076503 0.399427 -1.000568
2010-08-05 02:53:16 51°13.659 2°55.962 22.4979 0.076503 0.399427 -1.000568
2010-08-05 02:53:21 51°13.659 2°55.962 22.498 0.076503 0.399427 -1.000568
2010-08-05 02:53:26 51°13.66 2°55.963 22.4976 0.076503 0.399433 -0.965744
2010-08-05 02:53:31 51°13.66 2°55.962 22.4976 0.076503 0.399427 -0.965744
2010-08-05 02:53:36 51°13.66 2°55.962 22.4975 0.076503 0.399433 -1.035392
2010-08-05 02:53:41 51°13.657 2°55.962 22.4974 0.076503 0.399439 -1.000568
2010-08-05 02:53:46 51°13.656 2°55.962 22.4976 0.076503 0.399433 -1.000568
2010-08-05 02:53:51 51°13.657 2°55.963 22.4973 0.076503 0.399433 -1.000568
2010-08-05 02:53:56 51°13.658 2°55.963 22.4974 0.076503 0.399433 -0.965744
2010-08-05 02:54:01 51°13.66 2°55.963 22.4971 0.076503 0.399439 -1.000568
2010-08-05 02:54:06 51°13.661 2°55.963 22.4973 0.076503 0.399439 -0.965744
2010-08-05 02:54:10 51°13.661 2°55.963 22.4974 0.076503 0.399439 -1.000568
2010-08-05 02:54:16 51°13.661 2°55.964 22.4975 0.076503 0.399439 -1.000568
2010-08-05 02:54:21 51°13.662 2°55.964 22.4975 0.076503 0.399439 -1.000568
2010-08-05 02:54:26 51°13.664 2°55.964 22.4977 0.076503 0.399439 -1.000568
2010-08-05 02:54:31 51°13.667 2°55.964 22.4971 0.076503 0.399445 -0.965744
2010-08-05 02:54:36 51°13.67 2°55.964 22.497 0.076503 0.399445 -1.000568
2010-08-05 02:54:41 51°13.671 2°55.964 22.4969 0.076503 0.399439 -0.965744
2010-08-05 02:54:46 51°13.672 2°55.964 22.4974 0.076503 0.399439 -1.000568
2010-08-05 02:54:51 51°13.672 2°55.964 22.4966 0.076503 0.399439 -1.000568
2010-08-05 02:54:56 51°13.671 2°55.964 22.4962 0.076503 0.399445 -1.000568
2010-08-05 02:55:01 51°13.672 2°55.964 22.4967 0.076503 0.399445 -1.000568
2010-08-05 02:55:06 51°13.671 2°55.964 22.4967 0.076503 0.399451 -0.965744
2010-08-05 02:55:10 51°13.671 2°55.964 22.4966 0.076503 0.399445 -0.965744
2010-08-05 02:55:16 51°13.67 2°55.963 22.4975 0.076503 0.399445 -1.000568
2010-08-05 02:55:21 51°13.669 2°55.963 22.4972 0.076503 0.399445 -1.000568
2010-08-05 02:55:26 51°13.669 2°55.963 22.4975 0.076503 0.399445 -1.000568
2010-08-05 02:55:30 51°13.669 2°55.963 22.4969 0.076503 0.399445 -1.000568
2010-08-05 02:55:36 51°13.667 2°55.963 22.4969 0.076503 0.399451 -1.000568
2010-08-05 02:55:41 51°13.663 2°55.963 22.4969 0.076503 0.399451 -1.000568
2010-08-05 02:55:46 51°13.662 2°55.963 22.4967 0.076503 0.399451 -0.965744
2010-08-05 02:55:51 51°13.661 2°55.962 22.4969 0.076503 0.399451 -0.965744
2010-08-05 02:55:56 51°13.661 2°55.962 22.4971 0.076503 0.399451 -1.000568
2010-08-05 02:56:01 51°13.662 2°55.963 22.4971 0.076503 0.399457 -0.965744
2010-08-05 02:56:06 51°13.662 2°55.963 22.4969 0.076503 0.399457 -1.000568
2010-08-05 02:56:11 51°13.662 2°55.963 22.4967 0.076503 0.399457 -1.000568
2010-08-05 02:56:16 51°13.662 2°55.963 22.4967 0.076503 0.399457 -1.000568
2010-08-05 02:56:21 51°13.662 2°55.963 22.4969 0.076503 0.399457 -1.000568
2010-08-05 02:56:26 51°13.659 2°55.964 22.4966 0.076503 0.399457 -1.000568
2010-08-05 02:56:31 51°13.656 2°55.965 22.496 0.076503 0.399457 -1.000568
2010-08-05 02:56:36 51°13.656 2°55.967 22.4964 0.076503 0.399469 -1.000568
2010-08-05 02:56:41 51°13.656 2°55.968 22.4961 0.076503 0.399463 -0.965744
2010-08-05 02:56:46 51°13.658 2°55.968 22.4963 0.076503 0.399463 -1.000568
2010-08-05 02:56:51 51°13.658 2°55.968 22.4962 0.076503 0.399463 -1.000568
2010-08-05 02:56:56 51°13.658 2°55.968 22.4963 0.076503 0.399463 -0.965744
2010-08-05 02:57:01 51°13.66 2°55.97 22.4965 0.076503 0.399469 -1.000568
2010-08-05 02:57:06 51°13.659 2°55.97 22.4962 0.076503 0.399463 -1.000568
2010-08-05 02:57:11 51°13.656 2°55.969 22.4955 0.076503 0.399469 -1.000568
2010-08-05 02:57:16 51°13.655 2°55.968 22.4958 0.076503 0.399463 -1.035392
2010-08-05 02:57:21 51°13.655 2°55.968 22.4955 0.076503 0.399463 -1.035392
2010-08-05 02:57:25 51°13.656 2°55.969 22.4953 0.076503 0.399463 -1.000568
2010-08-05 02:57:31 51°13.655 2°55.968 22.4956 0.076503 0.399469 -1.000568
2010-08-05 02:57:36 51°13.654 2°55.968 22.495 0.076503 0.399469 -1.000568
2010-08-05 02:57:41 51°13.654 2°55.968 22.4947 0.076503 0.399469 -1.000568
2010-08-05 02:57:46 51°13.654 2°55.967 22.4948 0.076503 0.399469 -0.965744
2010-08-05 02:57:50 51°13.654 2°55.967 22.4955 0.076503 0.399469 -0.965744
2010-08-05 02:57:56 51°13.655 2°55.967 22.4951 0.076503 0.399469 -1.000568
2010-08-05 02:58:01 51°13.655 2°55.967 22.4952 0.076503 0.399469 -1.000568
2010-08-05 02:58:06 51°13.655 2°55.966 22.4949 0.076503 0.399469 -0.965744
2010-08-05 02:58:11 51°13.655 2°55.966 22.4948 0.076503 0.399475 -1.000568
2010-08-05 02:58:16 51°13.655 2°55.966 22.4949 0.076503 0.399475 -1.000568
2010-08-05 02:58:21 51°13.656 2°55.965 22.4946 0.076503 0.399475 -1.000568
2010-08-05 02:58:26 51°13.656 2°55.965 22.4946 0.076503 0.399475 -1.000568
2010-08-05 02:58:30 51°13.656 2°55.965 22.4941 0.076503 0.399475 -0.965744
2010-08-05 02:58:36 51°13.656 2°55.965 22.4935 0.076503 0.399475 -0.965744
2010-08-05 02:58:41 51°13.657 2°55.964 22.4936 0.076503 0.399481 -1.000568
2010-08-05 02:58:46 51°13.657 2°55.964 22.494 0.076503 0.399481 -1.035392
2010-08-05 02:58:51 51°13.657 2°55.964 22.4943 0.076503 0.399481 -1.035392
2010-08-05 02:58:56 51°13.658 2°55.964 22.4944 0.076503 0.399475 -1.000568
2010-08-05 02:59:01 51°13.658 2°55.964 22.4943 0.076503 0.399481 -1.000568
2010-08-05 02:59:06 51°13.658 2°55.964 22.4941 0.076503 0.399481 -0.965744
2010-08-05 02:59:11 51°13.659 2°55.964 22.4947 0.076503 0.399487 -1.000568
2010-08-05 02:59:16 51°13.659 2°55.964 22.4942 0.076503 0.399481 -1.000568
2010-08-05 02:59:21 51°13.659 2°55.964 22.4934 0.076503 0.399481 -1.000568
2010-08-05 02:59:26 51°13.659 2°55.964 22.4944 0.076503 0.399481 -1.000568
2010-08-05 02:59:31 51°13.66 2°55.964 22.4941 0.076503 0.399487 -1.000568
2010-08-05 02:59:36 51°13.66 2°55.964 22.4935 0.076503 0.399487 -1.000568
2010-08-05 02:59:41 51°13.66 2°55.964 22.4943 0.076503 0.399481 -1.000568
2010-08-05 02:59:46 51°13.661 2°55.964 22.494 0.076503 0.399487 -1.000568
2010-08-05 02:59:51 51°13.661 2°55.964 22.4944 0.076503 0.399487 -1.000568
2010-08-05 02:59:56 51°13.661 2°55.964 22.4945 0.076503 0.399487 -1.000568
2010-08-05 03:00:01 51°13.661 2°55.964 22.4941 0.076503 0.399487 -1.035392
2010-08-05 03:00:06 51°13.661 2°55.964 22.494 0.076503 0.399493 -1.035392
2010-08-05 03:00:11 51°13.662 2°55.965 22.4939 0.076503 0.399493 -0.965744
2010-08-05 03:00:16 51°13.662 2°55.965 22.4939 0.076503 0.399493 -1.000568
2010-08-05 03:00:21 51°13.662 2°55.966 22.494 0.076503 0.399493 -1.000568
2010-08-05 03:00:26 51°13.665 2°55.969 22.4942 0.076503 0.399493 -1.000568
2010-08-05 03:00:31 51°13.663 2°55.968 22.4942 0.076503 0.399493 -1.000568
2010-08-05 03:00:36 51°13.662 2°55.967 22.494 0.076503 0.399493 -1.000568
2010-08-05 03:00:41 51°13.662 2°55.967 22.4936 0.076503 0.399499 -1.000568
2010-08-05 03:00:46 51°13.662 2°55.967 22.4936 0.076503 0.399493 -0.965744
2010-08-05 03:00:51 51°13.662 2°55.967 22.4938 0.076503 0.399493 -0.965744
2010-08-05 03:00:56 51°13.662 2°55.967 22.4937 0.076503 0.399493 -1.000568
2010-08-05 03:01:01 51°13.662 2°55.967 22.4933 0.076503 0.399505 -0.965744
2010-08-05 03:01:06 51°13.662 2°55.967 22.493 0.076503 0.399499 -1.000568
2010-08-05 03:01:11 51°13.662 2°55.967 22.4933 0.076503 0.399505 -1.035392
2010-08-05 03:01:16 51°13.662 2°55.967 22.4938 0.076503 0.399499 -0.965744
2010-08-05 03:01:21 51°13.663 2°55.967 22.4938 0.076503 0.399499 -0.965744
2010-08-05 03:01:26 51°13.663 2°55.967 22.4935 0.076503 0.399505 -1.000568
2010-08-05 03:01:31 51°13.663 2°55.968 22.4931 0.076503 0.399505 -1.000568
2010-08-05 03:01:36 51°13.664 2°55.968 22.4927 0.076503 0.399505 -1.000568
2010-08-05 03:01:41 51°13.664 2°55.968 22.4931 0.076503 0.399505 -1.000568
2010-08-05 03:01:46 51°13.664 2°55.968 22.4929 0.076503 0.399505 -0.965744
2010-08-05 03:01:51 51°13.664 2°55.968 22.493 0.076503 0.399505 -0.965744
2010-08-05 03:01:56 51°13.665 2°55.968 22.4932 0.076503 0.399511 -1.000568
2010-08-05 03:02:01 51°13.665 2°55.968 22.4927 0.076503 0.399511 -0.965744
2010-08-05 03:02:06 51°13.665 2°55.969 22.4931 0.076503 0.399511 -1.000568
2010-08-05 03:02:11 51°13.665 2°55.969 22.4926 0.076503 0.399511 -1.000568
2010-08-05 03:02:16 51°13.665 2°55.969 22.4927 0.076503 0.399511 -1.000568
2010-08-05 03:02:21 51°13.666 2°55.969 22.4926 0.076503 0.399511 -1.000568
2010-08-05 03:02:26 51°13.666 2°55.97 22.4926 0.076503 0.399511 -0.965744
2010-08-05 03:02:31 51°13.666 2°55.97 22.4924 0.076503 0.399511 -1.000568
2010-08-05 03:02:36 51°13.666 2°55.97 22.493 0.076503 0.399511 -0.965744
2010-08-05 03:02:41 51°13.666 2°55.97 22.4925 0.076503 0.399517 -1.000568
2010-08-05 03:02:46 51°13.667 2°55.97 22.493 0.076503 0.399517 -1.000568
2010-08-05 03:02:51 51°13.667 2°55.971 22.4927 0.076503 0.399517 -1.000568
2010-08-05 03:02:56 51°13.667 2°55.971 22.4926 0.076503 0.399517 -1.000568
2010-08-05 03:03:01 51°13.667 2°55.971 22.4928 0.076503 0.399511 -1.000568
2010-08-05 03:03:06 51°13.667 2°55.971 22.4922 0.076503 0.399511 -0.965744
2010-08-05 03:03:10 51°13.667 2°55.971 22.4923 0.076503 0.399524 -0.965744
2010-08-05 03:03:16 51°13.667 2°55.971 22.4914 0.076503 0.399524 -1.000568
2010-08-05 03:03:21 51°13.668 2°55.971 22.4919 0.076503 0.399524 -1.000568
2010-08-05 03:03:26 51°13.668 2°55.972 22.4925 0.076503 0.399517 -1.000568
2010-08-05 03:03:31 51°13.668 2°55.973 22.4916 0.076503 0.399517 -0.965744
2010-08-05 03:03:36 51°13.668 2°55.973 22.4921 0.076399 0.398962 -1.000568
2010-08-05 03:03:41 51°13.668 2°55.973 22.4915 0.076399 0.398962 -1.000568
2010-08-05 03:03:46 51°13.668 2°55.973 22.4919 0.076503 0.399524 -0.965744
2010-08-05 03:03:50 51°13.668 2°55.973 22.4916 0.076503 0.399524 -0.965744
2010-08-05 03:03:56 51°13.668 2°55.973 22.4916 0.076503 0.39953 -0.965744
2010-08-05 03:04:01 51°13.668 2°55.973 22.4913 0.076503 0.399524 -1.000568
2010-08-05 03:04:06 51°13.668 2°55.973 22.491 0.076503 0.39953 -0.965744
2010-08-05 03:04:11 51°13.668 2°55.973 22.4916 0.076503 0.39953 -0.965744
2010-08-05 03:04:16 51°13.669 2°55.973 22.4915 0.076503 0.39953 -1.000568
2010-08-05 03:04:21 51°13.669 2°55.973 22.4913 0.076503 0.39953 -1.000568
2010-08-05 03:04:26 51°13.669 2°55.973 22.4915 0.076503 0.39953 -1.000568
2010-08-05 03:04:31 51°13.669 2°55.973 22.4912 0.076503 0.39953 -1.000568
2010-08-05 03:04:36 51°13.669 2°55.972 22.4918 0.076503 0.39953 -1.035392
2010-08-05 03:04:41 51°13.669 2°55.972 22.4917 0.076503 0.399536 -1.000568
2010-08-05 03:04:46 51°13.67 2°55.972 22.4915 0.076503 0.399536 -1.000568
2010-08-05 03:04:51 51°13.67 2°55.972 22.4913 0.076503 0.399536 -1.000568
2010-08-05 03:04:56 51°13.67 2°55.972 22.4917 0.076503 0.399542 -1.000568
2010-08-05 03:05:01 51°13.67 2°55.972 22.4917 0.076503 0.399536 -1.000568
2010-08-05 03:05:06 51°13.671 2°55.972 22.4915 0.076503 0.399542 -1.000568
2010-08-05 03:05:10 51°13.671 2°55.972 22.4916 0.076503 0.399542 -1.000568
2010-08-05 03:05:16 51°13.671 2°55.972 22.4917 0.076503 0.399536 -1.000568
2010-08-05 03:05:21 51°13.672 2°55.972 22.4916 0.076503 0.399536 -1.000568
2010-08-05 03:05:26 51°13.672 2°55.972 22.4911 0.076503 0.399542 -1.000568
2010-08-05 03:05:31 51°13.672 2°55.972 22.4914 0.076503 0.399542 -1.000568
2010-08-05 03:05:36 51°13.673 2°55.972 22.4912 0.076503 0.399542 -0.965744
2010-08-05 03:05:41 51°13.672 2°55.971 22.4918 0.076503 0.399542 -0.965744
2010-08-05 03:05:46 51°13.665 2°55.969 22.4919 0.076503 0.399542 -1.000568
2010-08-05 03:05:51 51°13.662 2°55.968 22.4918 0.076503 0.399542 -1.000568
2010-08-05 03:05:56 51°13.661 2°55.967 22.4912 0.076503 0.399548 -0.965744
2010-08-05 03:06:01 51°13.661 2°55.967 22.4911 0.076503 0.399542 -1.000568
2010-08-05 03:06:06 51°13.662 2°55.967 22.4911 0.076503 0.399548 -1.000568
2010-08-05 03:06:11 51°13.662 2°55.968 22.4918 0.076503 0.399548 -1.000568
2010-08-05 03:06:16 51°13.663 2°55.968 22.491 0.076503 0.399548 -0.965744
2010-08-05 03:06:21 51°13.664 2°55.968 22.4915 0.076503 0.399548 -0.965744
2010-08-05 03:06:26 51°13.664 2°55.968 22.4911 0.076503 0.399548 -1.000568
2010-08-05 03:06:31 51°13.666 2°55.969 22.4912 0.076503 0.399542 -1.000568
2010-08-05 03:06:36 51°13.668 2°55.97 22.491 0.076399 0.398986 -1.000568
2010-08-05 03:06:41 51°13.67 2°55.971 22.4912 0.076399 0.398992 -1.000568
2010-08-05 03:06:46 51°13.671 2°55.972 22.4912 0.076399 0.398992 -0.965744
2010-08-05 03:06:50 51°13.673 2°55.972 22.4913 0.076399 0.398992 -0.965744
2010-08-05 03:06:56 51°13.674 2°55.973 22.4912 0.076399 0.398992 -1.000568
2010-08-05 03:07:01 51°13.675 2°55.974 22.4916 0.076503 0.399548 -1.000568
2010-08-05 03:07:06 51°13.676 2°55.975 22.4918 0.076503 0.399554 -0.965744
2010-08-05 03:07:11 51°13.677 2°55.975 22.4918 0.076503 0.399554 -1.000568
2010-08-05 03:07:16 51°13.678 2°55.976 22.4914 0.076503 0.399554 -1.000568
2010-08-05 03:07:21 51°13.679 2°55.976 22.4913 0.076503 0.399554 -1.000568
2010-08-05 03:07:26 51°13.679 2°55.977 22.4914 0.076503 0.399554 -1.000568
2010-08-05 03:07:31 51°13.68 2°55.977 22.4911 0.076503 0.39956 -0.965744
2010-08-05 03:07:36 51°13.68 2°55.978 22.491 0.076399 0.398998 -1.000568
2010-08-05 03:07:41 51°13.681 2°55.978 22.4908 0.076503 0.399554 -1.000568
2010-08-05 03:07:45 51°13.681 2°55.978 22.4904 0.076503 0.39956 -1.000568
2010-08-05 03:07:51 51°13.681 2°55.979 22.4906 0.076503 0.39956 -1.000568
2010-08-05 03:07:56 51°13.681 2°55.979 22.4907 0.076503 0.39956 -1.000568
2010-08-05 03:08:01 51°13.682 2°55.979 22.4908 0.076503 0.399566 -0.965744
2010-08-05 03:08:06 51°13.682 2°55.98 22.491 0.076503 0.399566 -1.000568
2010-08-05 03:08:10 51°13.682 2°55.98 22.4907 0.076399 0.399004 -1.000568
2010-08-05 03:08:16 51°13.683 2°55.98 22.4913 0.076503 0.399566 -1.000568
2010-08-05 03:08:21 51°13.683 2°55.981 22.4908 0.076503 0.399566 -1.000568
2010-08-05 03:08:26 51°13.684 2°55.981 22.4909 0.076399 0.39901 -1.000568
2010-08-05 03:08:31 51°13.684 2°55.981 22.4909 0.076503 0.399572 -0.965744
2010-08-05 03:08:36 51°13.684 2°55.981 22.4908 0.076503 0.399566 -1.000568
2010-08-05 03:08:41 51°13.685 2°55.982 22.4909 0.076503 0.399572 -0.965744
2010-08-05 03:08:46 51°13.686 2°55.982 22.4911 0.076399 0.39901 -1.000568
2010-08-05 03:08:50 51°13.686 2°55.982 22.4911 0.076399 0.39901 -1.000568
2010-08-05 03:08:52 51°13.686 2°55.982 22.4907 0.076399 0.39901 -1.000568
2010-08-05 03:08:52 51°13.686 2°55.982 22.4905 0.076503 0.399572 -1.000568
2010-08-05 03:08:52 51°13.686 2°55.982 22.4905 0.076503 0.399572 -1.000568
2010-08-05 03:08:52 51°13.686 2°55.982 22.4908 0.076503 0.399578 -1.000568
2010-08-05 03:08:52 51°13.686 2°55.982 22.4905 0.076503 0.399578 -0.965744
2010-08-05 03:08:52 51°13.686 2°55.982 22.4905 0.076503 0.399578 -0.965744
2010-08-05 03:08:52 51°13.686 2°55.982 22.4908 0.076503 0.399572 -1.000568
2010-08-05 03:08:52 51°13.686 2°55.982 22.4905 0.076399 0.399022 -1.000568
2010-08-05 03:08:52 51°13.686 2°55.982 22.4905 0.076503 0.399572 -1.000568
2010-08-05 03:08:52 51°13.686 2°55.982 22.4902 0.076503 0.399578 -1.000568
2010-08-05 03:08:52 51°13.686 2°55.982 22.4905 0.076503 0.399578 -0.965744
2010-08-05 03:08:52 51°13.686 2°55.982 22.4903 0.076399 0.399022 -1.000568
2010-08-05 03:09:56 51°13.686 2°55.982 22.4905 0.076503 0.399578 -1.000568
2010-08-05 03:10:01 51°13.686 2°55.982 22.4904 0.076399 0.399022 -1.000568
2010-08-05 03:10:05 51°13.686 2°55.982 22.4907 0.076503 0.399584 -1.000568
2010-08-05 03:10:10 51°13.686 2°55.982 22.4904 0.076503 0.39959 -1.000568
2010-08-05 03:10:15 51°13.686 2°55.982 22.4898 0.076503 0.399584 -1.000568
2010-08-05 03:10:20 51°13.686 2°55.982 22.4897 0.076503 0.399584 -1.000568
2010-08-05 03:10:24 51°13.686 2°55.982 22.4904 0.076503 0.399584 -1.000568
2010-08-05 03:10:30 51°13.657 2°55.961 22.4898 0.076503 0.399584 -1.000568
2010-08-05 03:10:36 51°13.66 2°55.963 22.4898 0.076399 0.399029 -0.965744
2010-08-05 03:10:41 51°13.662 2°55.964 22.4897 0.076399 0.399029 -0.965744
2010-08-05 03:10:46 51°13.662 2°55.964 22.4895 0.076503 0.39959 -1.000568
2010-08-05 03:10:50 51°13.662 2°55.964 22.4899 0.076503 0.39959 -1.000568
2010-08-05 03:10:56 51°13.662 2°55.964 22.4898 0.076399 0.399029 -1.000568
2010-08-05 03:11:01 51°13.663 2°55.963 22.4897 0.076399 0.399029 -1.035392
2010-08-05 03:11:06 51°13.663 2°55.963 22.4893 0.076503 0.39959 -0.965744
2010-08-05 03:11:11 51°13.662 2°55.963 22.4898 0.076503 0.39959 -0.965744
2010-08-05 03:11:16 51°13.662 2°55.963 22.4898 0.076399 0.399035 -1.000568
2010-08-05 03:11:21 51°13.662 2°55.963 22.4893 0.076399 0.399035 -1.000568
2010-08-05 03:11:26 51°13.662 2°55.962 22.4895 0.076399 0.399035 -1.000568
2010-08-05 03:11:31 51°13.662 2°55.962 22.4893 0.076399 0.399035 -1.000568
2010-08-05 03:11:36 51°13.662 2°55.962 22.4891 0.076399 0.399035 -1.035392
2010-08-05 03:11:41 51°13.662 2°55.962 22.4892 0.076503 0.399602 -0.965744
2010-08-05 03:11:44 51°13.662 2°55.962 22.4889 0.076503 0.399602 -0.965744
2010-08-05 03:11:51 51°13.662 2°55.961 22.4892 0.076399 0.399041 -1.000568
2010-08-05 03:11:56 51°13.661 2°55.961 22.489 0.076503 0.399596 -0.965744
2010-08-05 03:12:01 51°13.661 2°55.961 22.489 0.076399 0.399035 -1.000568
2010-08-05 03:12:06 51°13.661 2°55.961 22.489 0.076399 0.399047 -1.000568
2010-08-05 03:12:11 51°13.66 2°55.961 22.4892 0.076399 0.399047 -1.000568
2010-08-05 03:12:31 51°13.66 2°55.961 22.4891 0.076503 0.399608 -1.000568
2010-08-05 03:12:36 51°13.66 2°55.961 22.4887 0.076503 0.399608 -1.000568
2010-08-05 03:13:01 51°13.66 2°55.96 22.4881 0.076399 0.399047 -1.000568
2010-08-05 03:13:22 51°13.66 2°55.96 22.4876 0.076399 0.399053 -1.000568
2010-08-05 03:13:52 51°13.66 2°55.96 22.4879 0.076503 0.39962 -1.000568
2010-08-05 03:14:06 51°13.661 2°55.96 22.4881 0.076399 0.399065 -0.965744
2010-08-05 03:14:10 51°13.661 2°55.96 22.4879 0.076399 0.399059 -1.000568
2010-08-05 03:14:16 51°13.661 2°55.96 22.4878 0.076399 0.399065 -0.965744
2010-08-05 03:14:21 51°13.661 2°55.96 22.4879 0.076399 0.399065 -0.965744
2010-08-05 03:14:26 51°13.661 2°55.96 22.4872 0.076503 0.399626 -1.000568
2010-08-05 03:14:30 51°13.661 2°55.96 22.4871 0.076399 0.399059 -0.965744
2010-08-05 03:14:36 51°13.661 2°55.96 22.4873 0.076399 0.399065 -1.000568
2010-08-05 03:14:41 51°13.661 2°55.96 22.4868 0.076503 0.399626 -0.965744
2010-08-05 03:14:46 51°13.661 2°55.96 22.4875 0.076399 0.399071 -0.965744
2010-08-05 03:14:50 51°13.661 2°55.96 22.4868 0.076399 0.399071 -0.965744
2010-08-05 03:14:56 51°13.661 2°55.96 22.4864 0.076399 0.399071 -0.965744
2010-08-05 03:15:00 51°13.661 2°55.96 22.4864 0.076399 0.399071 -1.000568
2010-08-05 03:15:06 51°13.661 2°55.96 22.4864 0.076399 0.399077 -1.000568
2010-08-05 03:15:11 51°13.661 2°55.96 22.4866 0.076399 0.399071 -1.000568
2010-08-05 03:15:16 51°13.661 2°55.96 22.4863 0.076399 0.399065 -0.965744
2010-08-05 03:15:21 51°13.661 2°55.96 22.4864 0.076399 0.399065 -0.965744
2010-08-05 03:15:26 51°13.66 2°55.959 22.4862 0.076399 0.399077 -0.965744
2010-08-05 03:15:31 51°13.66 2°55.959 22.4871 0.076399 0.399077 -1.000568
2010-08-05 03:15:36 51°13.66 2°55.959 22.4866 0.076399 0.399077 -1.000568
2010-08-05 03:15:41 51°13.66 2°55.959 22.4859 0.076503 0.399632 -1.000568
2010-08-05 03:15:46 51°13.66 2°55.959 22.4861 0.076399 0.399077 -1.000568
2010-08-05 03:15:51 51°13.66 2°55.959 22.4861 0.076399 0.399077 -1.000568
2010-08-05 03:15:55 51°13.66 2°55.959 22.4863 0.076503 0.399638 -0.965744
2010-08-05 03:16:01 51°13.66 2°55.96 22.4862 0.076399 0.399071 -1.000568
2010-08-05 03:16:06 51°13.66 2°55.96 22.4864 0.076399 0.399083 -1.000568
2010-08-05 03:16:11 51°13.66 2°55.96 22.4869 0.076399 0.399077 -1.000568
2010-08-05 03:16:16 51°13.661 2°55.96 22.4868 0.076399 0.399083 -1.000568
2010-08-05 03:16:21 51°13.661 2°55.96 22.4868 0.076399 0.399083 -1.000568
2010-08-05 03:16:26 51°13.661 2°55.96 22.4865 0.076399 0.399083 -0.965744
2010-08-05 03:16:30 51°13.661 2°55.96 22.4862 0.076399 0.399083 -0.965744
2010-08-05 03:16:36 51°13.661 2°55.96 22.4856 0.076399 0.399083 -1.000568
2010-08-05 03:16:41 51°13.661 2°55.96 22.4857 0.076399 0.399083 -1.000568
2010-08-05 03:16:46 51°13.661 2°55.96 22.4859 0.076399 0.399089 -1.000568
2010-08-05 03:16:50 51°13.661 2°55.96 22.4862 0.076399 0.399089 -1.000568
2010-08-05 03:16:56 51°13.661 2°55.96 22.4857 0.076399 0.399089 -1.000568
2010-08-05 03:17:01 51°13.661 2°55.96 22.485 0.076399 0.399089 -0.965744
2010-08-05 03:17:06 51°13.661 2°55.96 22.485 0.076399 0.399089 -1.000568
2010-08-05 03:17:10 51°13.661 2°55.96 22.4851 0.076399 0.399089 -0.965744
2010-08-05 03:17:16 51°13.661 2°55.96 22.4851 0.076399 0.399095 -0.965744
2010-08-05 03:17:21 51°13.661 2°55.96 22.4847 0.076399 0.399095 -0.965744
2010-08-05 03:17:26 51°13.661 2°55.96 22.485 0.076399 0.399089 -0.965744
2010-08-05 03:17:31 51°13.661 2°55.96 22.4847 0.076399 0.399095 -0.965744
2010-08-05 03:17:36 51°13.661 2°55.96 22.4845 0.076399 0.399089 -0.965744
2010-08-05 03:17:41 51°13.661 2°55.96 22.4845 0.076399 0.399095 -1.000568
2010-08-05 03:17:46 51°13.661 2°55.96 22.485 0.076399 0.399101 -0.965744
2010-08-05 03:17:51 51°13.661 2°55.96 22.4848 0.076399 0.399101 -0.965744
2010-08-05 03:17:56 51°13.661 2°55.96 22.4849 0.076399 0.399095 -1.000568
2010-08-05 03:18:01 51°13.661 2°55.96 22.4846 0.076399 0.399101 -0.965744
2010-08-05 03:18:06 51°13.661 2°55.96 22.4844 0.076399 0.399101 -1.000568
2010-08-05 03:18:11 51°13.661 2°55.96 22.4848 0.076399 0.399101 -1.000568
2010-08-05 03:18:16 51°13.661 2°55.96 22.4847 0.076399 0.399101 -1.000568
2010-08-05 03:18:21 51°13.661 2°55.96 22.4847 0.076399 0.399101 -1.000568
2010-08-05 03:18:26 51°13.661 2°55.96 22.4848 0.076399 0.399101 -1.000568
2010-08-05 03:18:31 51°13.661 2°55.96 22.4849 0.076399 0.399101 -0.965744
2010-08-05 03:18:36 51°13.661 2°55.96 22.4854 0.076399 0.399101 -0.965744
2010-08-05 03:18:41 51°13.662 2°55.96 22.4852 0.076399 0.399107 -1.000568
2010-08-05 03:18:46 51°13.662 2°55.96 22.4852 0.076399 0.399113 -0.965744
2010-08-05 03:18:50 51°13.662 2°55.96 22.4851 0.076399 0.399113 -0.965744
2010-08-05 03:18:55 51°13.662 2°55.96 22.4848 0.076399 0.399107 -1.000568
2010-08-05 03:19:01 51°13.662 2°55.961 22.4845 0.076399 0.399101 -0.965744
2010-08-05 03:19:05 51°13.662 2°55.961 22.4846 0.076399 0.399107 -0.965744
2010-08-05 03:19:10 51°13.662 2°55.961 22.4843 0.076399 0.399107 -1.000568
2010-08-05 03:19:15 51°13.662 2°55.961 22.4841 0.076399 0.399113 -1.000568
2010-08-05 03:19:20 51°13.662 2°55.961 22.4845 0.076399 0.399113 -1.000568
2010-08-05 03:19:25 51°13.662 2°55.961 22.4845 0.076399 0.399113 -1.000568
2010-08-05 03:19:30 51°13.662 2°55.961 22.4845 0.076399 0.399113 -1.000568
2010-08-05 03:19:35 51°13.662 2°55.961 22.4842 0.076399 0.399113 -1.000568
2010-08-05 03:19:40 51°13.662 2°55.961 22.484 0.076399 0.399113 -1.000568
2010-08-05 03:19:45 51°13.662 2°55.961 22.4843 0.076399 0.399113 -0.965744
2010-08-05 03:19:50 51°13.662 2°55.961 22.4844 0.076399 0.399113 -0.965744
2010-08-05 03:19:55 51°13.662 2°55.961 22.4848 0.076399 0.399119 -1.000568
2010-08-05 03:20:00 51°13.662 2°55.961 22.4846 0.076399 0.399119 -1.000568
2010-08-05 03:20:05 51°13.662 2°55.961 22.4843 0.076399 0.399119 -1.000568
2010-08-05 03:20:10 51°13.663 2°55.961 22.4843 0.076399 0.399125 -1.035392
2010-08-05 03:20:15 51°13.663 2°55.961 22.4848 0.076399 0.399119 -0.965744
2010-08-05 03:20:20 51°13.663 2°55.961 22.4843 0.076399 0.399119 -0.965744
2010-08-05 03:20:25 51°13.663 2°55.961 22.4843 0.076399 0.399125 -1.000568
2010-08-05 03:20:30 51°13.663 2°55.961 22.4842 0.076399 0.399125 -1.000568
2010-08-05 03:20:35 51°13.663 2°55.961 22.4845 0.076399 0.399119 -0.965744
2010-08-05 03:20:40 51°13.663 2°55.961 22.4845 0.076399 0.399125 -0.965744
2010-08-05 03:20:45 51°13.663 2°55.961 22.4843 0.076399 0.399125 -1.000568
2010-08-05 03:20:50 51°13.663 2°55.961 22.4846 0.076399 0.399125 -1.000568
2010-08-05 03:20:55 51°13.663 2°55.961 22.484 0.076399 0.399125 -0.965744
2010-08-05 03:21:00 51°13.663 2°55.961 22.4838 0.076399 0.399131 -1.000568
2010-08-05 03:21:05 51°13.663 2°55.961 22.4833 0.076399 0.399125 -1.000568
2010-08-05 03:21:10 51°13.663 2°55.961 22.4834 0.076399 0.399131 -1.000568
2010-08-05 03:21:15 51°13.663 2°55.961 22.4835 0.076399 0.399131 -1.035392
2010-08-05 03:21:20 51°13.662 2°55.961 22.4831 0.076399 0.399131 -1.035392
2010-08-05 03:21:25 51°13.662 2°55.961 22.4837 0.076399 0.399131 -0.965744
2010-08-05 03:21:30 51°13.662 2°55.961 22.4837 0.076399 0.399131 -0.965744
2010-08-05 03:21:35 51°13.662 2°55.961 22.4838 0.076399 0.399131 -0.965744
2010-08-05 03:21:40 51°13.662 2°55.961 22.4835 0.076399 0.399131 -1.000568
2010-08-05 03:21:45 51°13.662 2°55.961 22.4832 0.076399 0.399137 -1.000568
2010-08-05 03:21:50 51°13.662 2°55.961 22.4828 0.076399 0.399137 -1.000568
2010-08-05 03:21:55 51°13.662 2°55.961 22.4827 0.076399 0.399137 -1.000568
2010-08-05 03:22:00 51°13.662 2°55.961 22.4827 0.076399 0.399137 -1.000568
2010-08-05 03:22:05 51°13.662 2°55.961 22.4826 0.076399 0.399137 -0.965744
2010-08-05 03:22:10 51°13.662 2°55.961 22.4823 0.076399 0.399137 -0.965744
2010-08-05 03:22:15 51°13.662 2°55.961 22.4828 0.076399 0.399143 -1.000568
2010-08-05 03:22:20 51°13.661 2°55.961 22.483 0.076399 0.399143 -1.000568
2010-08-05 03:22:25 51°13.662 2°55.961 22.483 0.076399 0.399149 -1.000568
2010-08-05 03:22:30 51°13.662 2°55.961 22.4829 0.076399 0.399137 -0.965744
2010-08-05 03:22:35 51°13.662 2°55.961 22.4832 0.076399 0.399149 -1.000568
2010-08-05 03:22:40 51°13.661 2°55.961 22.4832 0.076399 0.399137 -1.000568
2010-08-05 03:22:45 51°13.662 2°55.961 22.4835 0.076399 0.399143 -1.000568
2010-08-05 03:22:50 51°13.662 2°55.961 22.4835 0.076399 0.399143 -1.000568
2010-08-05 03:22:55 51°13.662 2°55.961 22.4833 0.076399 0.399149 -1.000568
2010-08-05 03:23:00 51°13.662 2°55.962 22.4831 0.076399 0.399143 -1.000568
2010-08-05 03:23:05 51°13.662 2°55.962 22.4827 0.076399 0.399149 -0.965744
2010-08-05 03:23:10 51°13.662 2°55.962 22.4826 0.076399 0.399149 -1.000568
2010-08-05 03:23:15 51°13.662 2°55.962 22.4835 0.076399 0.399149 -1.000568
2010-08-05 03:23:20 51°13.662 2°55.962 22.4831 0.076399 0.399149 -1.000568
2010-08-05 03:23:25 51°13.662 2°55.962 22.483 0.076399 0.399149 -0.965744
2010-08-05 03:23:30 51°13.662 2°55.962 22.4826 0.076399 0.399149 -0.965744
2010-08-05 03:23:35 51°13.662 2°55.962 22.4828 0.076399 0.399149 -1.000568
2010-08-05 03:23:40 51°13.662 2°55.962 22.4825 0.076399 0.399155 -1.000568
2010-08-05 03:23:45 51°13.662 2°55.962 22.4828 0.076399 0.399149 -1.000568
2010-08-05 03:23:50 51°13.662 2°55.962 22.4828 0.076399 0.399149 -1.000568
2010-08-05 03:23:55 51°13.662 2°55.962 22.4825 0.076399 0.399155 -1.000568
2010-08-05 03:24:00 51°13.662 2°55.962 22.4822 0.076399 0.399161 -0.965744
2010-08-05 03:24:05 51°13.662 2°55.962 22.4828 0.076399 0.399161 -1.000568
2010-08-05 03:24:10 51°13.662 2°55.962 22.4825 0.076399 0.399161 -1.000568
2010-08-05 03:24:15 51°13.662 2°55.962 22.4827 0.076399 0.399161 -1.000568
2010-08-05 03:24:20 51°13.662 2°55.962 22.4825 0.076399 0.399161 -1.000568
2010-08-05 03:24:25 51°13.662 2°55.962 22.4826 0.076399 0.399161 -0.965744
2010-08-05 03:24:30 51°13.662 2°55.962 22.4826 0.076399 0.399161 -1.000568
2010-08-05 03:24:35 51°13.662 2°55.962 22.4825 0.076399 0.399161 -1.000568
2010-08-05 03:24:40 51°13.662 2°55.962 22.4826 0.076399 0.399161 -1.000568
2010-08-05 03:24:45 51°13.662 2°55.962 22.4822 0.076399 0.399167 -1.000568
2010-08-05 03:24:50 51°13.662 2°55.962 22.4825 0.076399 0.399167 -1.000568
2010-08-05 03:24:55 51°13.662 2°55.962 22.482 0.076399 0.399161 -0.965744
2010-08-05 03:25:00 51°13.662 2°55.962 22.4817 0.076399 0.399167 -0.965744
2010-08-05 03:25:05 51°13.662 2°55.962 22.4819 0.076399 0.399167 -0.965744
2010-08-05 03:25:10 51°13.662 2°55.962 22.4817 0.076399 0.399173 -0.965744
2010-08-05 03:25:15 51°13.662 2°55.962 22.4818 0.076399 0.399167 -1.000568
2010-08-05 03:25:20 51°13.662 2°55.962 22.482 0.076399 0.399167 -1.000568
2010-08-05 03:25:25 51°13.662 2°55.962 22.482 0.076399 0.399167 -0.965744
2010-08-05 03:25:30 51°13.662 2°55.961 22.4813 0.076399 0.399173 -1.000568
2010-08-05 03:25:35 51°13.662 2°55.961 22.4825 0.076399 0.399173 -1.000568
2010-08-05 03:25:40 51°13.662 2°55.961 22.4815 0.076399 0.399173 -1.035392
2010-08-05 03:25:45 51°13.662 2°55.961 22.4816 0.076399 0.399173 -0.965744
2010-08-05 03:25:50 51°13.662 2°55.961 22.4814 0.076399 0.399173 -0.965744
2010-08-05 03:25:55 51°13.662 2°55.961 22.4814 0.076399 0.399173 -0.965744
2010-08-05 03:26:00 51°13.662 2°55.961 22.4812 0.076399 0.399173 -0.965744
2010-08-05 03:26:05 51°13.662 2°55.961 22.481 0.076399 0.399179 -1.035392
2010-08-05 03:26:10 51°13.662 2°55.961 22.4813 0.076399 0.399179 -1.035392
2010-08-05 03:26:15 51°13.662 2°55.961 22.4812 0.076399 0.399179 -1.035392
2010-08-05 03:26:20 51°13.662 2°55.961 22.481 0.076399 0.399179 -1.035392
2010-08-05 03:26:25 51°13.662 2°55.961 22.4814 0.076399 0.399179 -0.965744
2010-08-05 03:26:30 51°13.662 2°55.961 22.4814 0.076399 0.399179 -1.000568
2010-08-05 03:26:35 51°13.662 2°55.961 22.4815 0.076399 0.399186 -1.000568
2010-08-05 03:26:40 51°13.662 2°55.961 22.4817 0.076399 0.399186 -1.000568
2010-08-05 03:26:45 51°13.662 2°55.961 22.4816 0.076399 0.399186 -1.000568
2010-08-05 03:26:50 51°13.662 2°55.961 22.4815 0.076399 0.399186 -1.000568
2010-08-05 03:26:55 51°13.662 2°55.961 22.4811 0.076399 0.399186 -0.965744
2010-08-05 03:27:00 51°13.662 2°55.961 22.4807 0.076399 0.399192 -0.965744
2010-08-05 03:27:05 51°13.662 2°55.961 22.4807 0.076399 0.399186 -1.035392
2010-08-05 03:27:10 51°13.662 2°55.961 22.4802 0.076399 0.399192 -1.000568
2010-08-05 03:27:15 51°13.662 2°55.961 22.4807 0.076399 0.399186 -1.000568
2010-08-05 03:27:20 51°13.662 2°55.961 22.4802 0.076399 0.399186 -1.000568
2010-08-05 03:27:25 51°13.662 2°55.961 22.4803 0.076399 0.399192 -1.000568
2010-08-05 03:27:30 51°13.662 2°55.961 22.4805 0.076399 0.399192 -1.000568
2010-08-05 03:27:35 51°13.662 2°55.961 22.4804 0.076399 0.399192 -0.965744
2010-08-05 03:27:40 51°13.662 2°55.961 22.4805 0.076399 0.399192 -1.000568
2010-08-05 03:27:45 51°13.662 2°55.961 22.4807 0.076399 0.399198 -1.000568
2010-08-05 03:27:50 51°13.662 2°55.961 22.481 0.076399 0.399198 -1.000568
2010-08-05 03:27:55 51°13.662 2°55.961 22.4806 0.076399 0.399198 -1.000568
2010-08-05 03:28:00 51°13.662 2°55.961 22.4807 0.076399 0.399198 -0.965744
2010-08-05 03:28:05 51°13.662 2°55.961 22.4804 0.076399 0.399192 -1.000568
2010-08-05 03:28:10 51°13.662 2°55.961 22.4805 0.076399 0.399198 -1.000568
2010-08-05 03:28:15 51°13.662 2°55.961 22.4802 0.076399 0.399198 -0.965744
2010-08-05 03:28:20 51°13.662 2°55.961 22.4804 0.076399 0.399198 -0.965744
2010-08-05 03:28:25 51°13.662 2°55.961 22.4807 0.076399 0.399198 -1.000568
2010-08-05 03:28:30 51°13.662 2°55.961 22.4806 0.076399 0.399204 -0.965744
2010-08-05 03:28:35 51°13.662 2°55.961 22.4806 0.076399 0.399204 -1.000568
2010-08-05 03:28:40 51°13.662 2°55.961 22.4806 0.076399 0.399198 -1.035392
2010-08-05 03:28:45 51°13.662 2°55.961 22.4809 0.076399 0.399204 -0.965744
2010-08-05 03:28:50 51°13.662 2°55.961 22.4807 0.076399 0.399204 -0.965744
2010-08-05 03:28:55 51°13.662 2°55.961 22.4812 0.076399 0.399204 -0.965744
2010-08-05 03:29:00 51°13.662 2°55.961 22.4809 0.076399 0.39921 -0.965744
2010-08-05 03:29:05 51°13.662 2°55.961 22.4807 0.076399 0.399204 -1.000568
2010-08-05 03:29:10 51°13.662 2°55.961 22.4802 0.076399 0.39921 -1.000568
2010-08-05 03:29:15 51°13.662 2°55.961 22.4795 0.076399 0.399204 -1.000568
2010-08-05 03:29:20 51°13.662 2°55.961 22.4789 0.076399 0.399204 -1.000568
2010-08-05 03:29:25 51°13.662 2°55.961 22.4794 0.076399 0.39921 -0.965744
2010-08-05 03:29:30 51°13.662 2°55.961 22.4792 0.076399 0.39921 -0.965744
2010-08-05 03:29:35 51°13.662 2°55.961 22.479 0.076399 0.39921 -1.000568
2010-08-05 03:29:40 51°13.662 2°55.961 22.4792 0.076399 0.399216 -1.000568
2010-08-05 03:29:45 51°13.662 2°55.961 22.4793 0.076399 0.39921 -0.965744
2010-08-05 03:29:50 51°13.662 2°55.961 22.4796 0.076399 0.39921 -0.965744
2010-08-05 03:29:55 51°13.662 2°55.96 22.4794 0.076399 0.399216 -0.93092
2010-08-05 03:30:00 51°13.662 2°55.96 22.4799 0.076399 0.39921 -1.000568
2010-08-05 03:30:05 51°13.662 2°55.96 22.4796 0.076399 0.39921 -1.000568
2010-08-05 03:30:10 51°13.662 2°55.96 22.4798 0.076399 0.399216 -1.000568
2010-08-05 03:30:15 51°13.662 2°55.96 22.4799 0.076399 0.399216 -1.000568
2010-08-05 03:30:20 51°13.662 2°55.96 22.4799 0.076399 0.399216 -1.000568
2010-08-05 03:30:25 51°13.662 2°55.96 22.4796 0.076399 0.399222 -1.000568
2010-08-05 03:30:30 51°13.662 2°55.96 22.4803 0.076399 0.399222 -1.000568
2010-08-05 03:30:35 51°13.662 2°55.96 22.4799 0.076399 0.399222 -1.000568
2010-08-05 03:30:40 51°13.662 2°55.96 22.4795 0.076399 0.399222 -1.000568
2010-08-05 03:30:45 51°13.662 2°55.96 22.4779 0.076399 0.399228 -1.000568
2010-08-05 03:30:50 51°13.662 2°55.96 22.4788 0.076399 0.399228 -1.000568
2010-08-05 03:30:55 51°13.662 2°55.961 22.4787 0.076399 0.399228 -1.000568
2010-08-05 03:31:00 51°13.662 2°55.961 22.479 0.076399 0.399228 -1.000568
2010-08-05 03:31:05 51°13.662 2°55.961 22.4787 0.076399 0.399228 -1.000568
2010-08-05 03:31:10 51°13.662 2°55.961 22.4795 0.076399 0.399228 -0.965744
2010-08-05 03:31:15 51°13.662 2°55.961 22.4794 0.076399 0.399234 -0.965744
2010-08-05 03:31:20 51°13.662 2°55.961 22.4789 0.076399 0.399234 -0.965744
2010-08-05 03:31:25 51°13.662 2°55.961 22.4787 0.076399 0.399228 -0.965744
2010-08-05 03:31:30 51°13.662 2°55.961 22.4785 0.076399 0.399228 -1.000568
2010-08-05 03:31:35 51°13.662 2°55.961 22.478 0.076399 0.399234 -0.965744
2010-08-05 03:31:40 51°13.662 2°55.961 22.4779 0.076399 0.399228 -1.000568
2010-08-05 03:31:45 51°13.662 2°55.96 22.4779 0.076399 0.399234 -0.965744
2010-08-05 03:31:50 51°13.662 2°55.961 22.4783 0.076399 0.399234 -0.965744
2010-08-05 03:31:55 51°13.662 2°55.96 22.4781 0.076399 0.399234 -1.000568
2010-08-05 03:32:00 51°13.662 2°55.96 22.4785 0.076399 0.39924 -0.965744
2010-08-05 03:32:05 51°13.662 2°55.96 22.4785 0.076399 0.399234 -1.000568
2010-08-05 03:32:10 51°13.662 2°55.96 22.4782 0.076399 0.399234 -1.000568
2010-08-05 03:32:15 51°13.662 2°55.96 22.4781 0.076399 0.399234 -1.000568
2010-08-05 03:32:20 51°13.662 2°55.96 22.4771 0.076399 0.399234 -1.000568
2010-08-05 03:32:25 51°13.662 2°55.96 22.4764 0.076399 0.399234 -1.000568
2010-08-05 03:32:30 51°13.662 2°55.96 22.4765 0.076399 0.39924 -1.000568
2010-08-05 03:32:35 51°13.662 2°55.96 22.4771 0.076399 0.39924 -1.000568
2010-08-05 03:32:40 51°13.662 2°55.96 22.4775 0.076399 0.39924 -1.000568
2010-08-05 03:32:45 51°13.661 2°55.96 22.4773 0.076399 0.39924 -1.000568
2010-08-05 03:32:50 51°13.661 2°55.96 22.4776 0.076399 0.39924 -1.000568
2010-08-05 03:32:55 51°13.661 2°55.96 22.4775 0.076399 0.39924 -1.000568
2010-08-05 03:33:00 51°13.661 2°55.96 22.4774 0.076399 0.39924 -0.965744
2010-08-05 03:33:05 51°13.661 2°55.96 22.4775 0.076399 0.399246 -1.000568
2010-08-05 03:33:10 51°13.661 2°55.96 22.4774 0.076399 0.399246 -0.965744
2010-08-05 03:33:15 51°13.661 2°55.96 22.4778 0.076399 0.399252 -0.965744
2010-08-05 03:33:20 51°13.661 2°55.96 22.4779 0.076399 0.399252 -0.965744
2010-08-05 03:33:25 51°13.661 2°55.96 22.4782 0.076399 0.399246 -1.000568
2010-08-05 03:33:30 51°13.661 2°55.96 22.4777 0.076399 0.399246 -1.000568
2010-08-05 03:33:35 51°13.661 2°55.96 22.4778 0.076399 0.399252 -0.965744
2010-08-05 03:33:40 51°13.661 2°55.96 22.4777 0.076399 0.399252 -0.965744
2010-08-05 03:33:45 51°13.661 2°55.96 22.4777 0.076399 0.399252 -0.965744
2010-08-05 03:33:50 51°13.661 2°55.96 22.4784 0.076399 0.399252 -0.965744
2010-08-05 03:33:55 51°13.661 2°55.96 22.4784 0.076399 0.399258 -1.000568
2010-08-05 03:34:00 51°13.661 2°55.96 22.4782 0.076399 0.399258 -1.000568
2010-08-05 03:34:05 51°13.661 2°55.96 22.4775 0.076399 0.399252 -0.965744
2010-08-05 03:34:10 51°13.661 2°55.96 22.4768 0.076399 0.399258 -0.965744
2010-08-05 03:34:15 51°13.661 2°55.96 22.477 0.076399 0.399258 -1.000568
2010-08-05 03:34:20 51°13.661 2°55.96 22.4771 0.076399 0.399258 -1.000568
2010-08-05 03:34:25 51°13.661 2°55.96 22.4774 0.076399 0.399264 -1.000568
2010-08-05 03:34:30 51°13.661 2°55.96 22.4774 0.076399 0.399258 -1.000568
2010-08-05 03:34:35 51°13.661 2°55.96 22.4771 0.076399 0.399258 -1.000568
2010-08-05 03:34:40 51°13.661 2°55.96 22.4774 0.076399 0.399258 -1.035392
2010-08-05 03:34:45 51°13.661 2°55.96 22.4767 0.076399 0.399264 -0.965744
2010-08-05 03:34:50 51°13.662 2°55.96 22.4773 0.076399 0.399264 -0.965744
2010-08-05 03:34:55 51°13.662 2°55.96 22.4765 0.076399 0.399264 -1.000568
2010-08-05 03:35:00 51°13.661 2°55.96 22.4767 0.076399 0.399264 -1.000568
2010-08-05 03:35:05 51°13.662 2°55.96 22.4765 0.076399 0.399264 -1.000568
2010-08-05 03:35:10 51°13.662 2°55.96 22.4769 0.076399 0.39927 -0.965744
2010-08-05 03:35:15 51°13.662 2°55.96 22.4765 0.076399 0.39927 -0.965744
2010-08-05 03:35:20 51°13.662 2°55.96 22.4771 0.076399 0.399264 -1.000568
2010-08-05 03:35:25 51°13.662 2°55.96 22.477 0.076399 0.39927 -1.000568
2010-08-05 03:35:30 51°13.662 2°55.96 22.477 0.076399 0.39927 -1.000568
2010-08-05 03:35:35 51°13.662 2°55.96 22.4768 0.076399 0.39927 -1.000568
2010-08-05 03:35:40 51°13.662 2°55.96 22.4768 0.076399 0.39927 -0.965744
2010-08-05 03:35:45 51°13.661 2°55.96 22.4766 0.076399 0.39927 -0.965744
2010-08-05 03:35:50 51°13.662 2°55.96 22.4765 0.076399 0.39927 -0.965744
2010-08-05 03:35:55 51°13.662 2°55.96 22.4766 0.076399 0.39927 -0.965744
2010-08-05 03:36:00 51°13.662 2°55.96 22.4767 0.076399 0.39927 -0.965744
2010-08-05 03:36:05 51°13.662 2°55.96 22.4765 0.076399 0.399276 -1.000568
2010-08-05 03:36:10 51°13.662 2°55.96 22.4769 0.076399 0.399276 -1.000568
2010-08-05 03:36:15 51°13.661 2°55.96 22.4766 0.076399 0.399282 -1.000568
2010-08-05 03:36:20 51°13.661 2°55.96 22.4766 0.076399 0.399282 -1.000568
2010-08-05 03:36:25 51°13.661 2°55.96 22.4765 0.076399 0.399276 -1.000568
2010-08-05 03:36:30 51°13.661 2°55.96 22.4771 0.076399 0.399282 -1.000568
2010-08-05 03:36:35 51°13.661 2°55.96 22.4769 0.076399 0.399288 -1.000568
2010-08-05 03:36:40 51°13.661 2°55.96 22.4768 0.076399 0.399282 -1.000568
2010-08-05 03:36:45 51°13.661 2°55.96 22.477 0.076399 0.399282 -1.000568
2010-08-05 03:36:50 51°13.661 2°55.96 22.4765 0.076399 0.399288 -1.000568
2010-08-05 03:36:56 51°13.662 2°55.96 22.4769 0.076399 0.399288 -1.000568
2010-08-05 03:37:00 51°13.662 2°55.96 22.4769 0.076399 0.399282 -0.965744
2010-08-05 03:37:05 51°13.662 2°55.96 22.4765 0.076399 0.399288 -1.000568
2010-08-05 03:37:10 51°13.662 2°55.96 22.4763 0.076399 0.399282 -1.035392
2010-08-05 03:37:15 51°13.662 2°55.96 22.4761 0.076399 0.399282 -1.035392
2010-08-05 03:37:20 51°13.662 2°55.96 22.4762 0.076399 0.399288 -1.000568
2010-08-05 03:37:25 51°13.662 2°55.96 22.4761 0.076399 0.399288 -1.000568
2010-08-05 03:37:30 51°13.662 2°55.96 22.4754 0.076399 0.399288 -1.000568
2010-08-05 03:37:35 51°13.662 2°55.96 22.4763 0.076399 0.399288 -1.000568
2010-08-05 03:37:40 51°13.662 2°55.96 22.4752 0.076399 0.399288 -1.000568
2010-08-05 03:37:45 51°13.662 2°55.96 22.4756 0.076399 0.399288 -0.965744
2010-08-05 03:37:51 51°13.662 2°55.96 22.4757 0.076399 0.399288 -0.965744
2010-08-05 03:37:55 51°13.662 2°55.96 22.4759 0.076399 0.399294 -0.965744
2010-08-05 03:38:00 51°13.662 2°55.96 22.4761 0.076399 0.399294 -1.000568
2010-08-05 03:38:05 51°13.662 2°55.96 22.4754 0.076399 0.399294 -1.000568
2010-08-05 03:38:11 51°13.662 2°55.96 22.4749 0.076399 0.3993 -1.000568
2010-08-05 03:38:15 51°13.662 2°55.96 22.4748 0.076399 0.399294 -1.000568
2010-08-05 03:38:20 51°13.662 2°55.96 22.4748 0.076399 0.399294 -1.000568
2010-08-05 03:38:25 51°13.662 2°55.96 22.4753 0.076399 0.3993 -0.965744
2010-08-05 03:38:30 51°13.662 2°55.96 22.4748 0.076399 0.399306 -0.965744
2010-08-05 03:38:35 51°13.662 2°55.96 22.4747 0.076399 0.3993 -1.000568
2010-08-05 03:38:40 51°13.662 2°55.961 22.475 0.076399 0.399306 -1.000568
2010-08-05 03:38:45 51°13.662 2°55.961 22.4751 0.076399 0.3993 -0.965744
2010-08-05 03:38:50 51°13.662 2°55.961 22.4756 0.076399 0.3993 -0.965744
2010-08-05 03:38:55 51°13.662 2°55.96 22.4756 0.076399 0.3993 -0.965744
2010-08-05 03:39:00 51°13.662 2°55.96 22.4756 0.076399 0.399306 -1.000568
2010-08-05 03:39:05 51°13.662 2°55.96 22.4762 0.076399 0.399306 -1.000568
2010-08-05 03:39:10 51°13.662 2°55.96 22.476 0.076399 0.399306 -1.000568
2010-08-05 03:39:15 51°13.662 2°55.96 22.4759 0.076399 0.399306 -1.000568
2010-08-05 03:39:20 51°13.662 2°55.96 22.4763 0.076399 0.399306 -1.000568
2010-08-05 03:39:25 51°13.662 2°55.96 22.4765 0.076399 0.399306 -1.000568
2010-08-05 03:39:30 51°13.662 2°55.96 22.4764 0.076399 0.399306 -0.965744
2010-08-05 03:39:35 51°13.662 2°55.96 22.4762 0.076399 0.399306 -1.000568
2010-08-05 03:39:40 51°13.662 2°55.96 22.4762 0.076399 0.399312 -0.965744
2010-08-05 03:39:46 51°13.662 2°55.96 22.4753 0.076399 0.399312 -1.000568
2010-08-05 03:39:50 51°13.662 2°55.96 22.4753 0.076399 0.399312 -1.000568
2010-08-05 03:39:56 51°13.662 2°55.96 22.4753 0.076399 0.399306 -0.965744
2010-08-05 03:40:00 51°13.662 2°55.96 22.4751 0.076399 0.399306 -1.000568
2010-08-05 03:40:05 51°13.662 2°55.961 22.4751 0.076399 0.399318 -1.000568
2010-08-05 03:40:10 51°13.662 2°55.961 22.4756 0.076399 0.399312 -1.000568
2010-08-05 03:40:15 51°13.662 2°55.961 22.4748 0.076399 0.399312 -1.000568
2010-08-05 03:40:20 51°13.662 2°55.961 22.4748 0.076399 0.399312 -1.000568
2010-08-05 03:40:25 51°13.662 2°55.961 22.475 0.076399 0.399318 -1.000568
2010-08-05 03:40:30 51°13.662 2°55.961 22.4745 0.076399 0.399318 -0.965744
2010-08-05 03:40:35 51°13.662 2°55.961 22.4747 0.076399 0.399318 -1.000568
2010-08-05 03:40:40 51°13.662 2°55.961 22.4746 0.076399 0.399325 -1.000568
2010-08-05 03:40:45 51°13.662 2°55.961 22.4742 0.076399 0.399318 -0.965744
2010-08-05 03:40:51 51°13.662 2°55.961 22.4735 0.076399 0.399318 -0.965744
2010-08-05 03:40:55 51°13.662 2°55.961 22.4735 0.076399 0.399331 -0.965744
2010-08-05 03:41:00 51°13.662 2°55.961 22.474 0.076399 0.399325 -1.000568
2010-08-05 03:41:05 51°13.662 2°55.961 22.4737 0.076399 0.399325 -1.000568
2010-08-05 03:41:10 51°13.662 2°55.961 22.4738 0.076399 0.399325 -0.93092
2010-08-05 03:41:15 51°13.662 2°55.961 22.474 0.076399 0.399325 -1.000568
2010-08-05 03:41:20 51°13.663 2°55.961 22.474 0.076399 0.399325 -1.000568
2010-08-05 03:41:25 51°13.662 2°55.961 22.4746 0.076399 0.399325 -1.000568
2010-08-05 03:41:30 51°13.662 2°55.961 22.4746 0.076399 0.399331 -0.965744
2010-08-05 03:41:35 51°13.662 2°55.961 22.4748 0.076399 0.399325 -0.965744
2010-08-05 03:41:40 51°13.662 2°55.961 22.4745 0.076399 0.399331 -1.000568
2010-08-05 03:41:45 51°13.662 2°55.961 22.4747 0.076399 0.399331 -0.965744
2010-08-05 03:41:50 51°13.662 2°55.961 22.4748 0.076399 0.399331 -0.965744
2010-08-05 03:41:55 51°13.662 2°55.961 22.4744 0.076399 0.399331 -0.965744
2010-08-05 03:42:00 51°13.662 2°55.961 22.4745 0.076399 0.399337 -0.965744
2010-08-05 03:42:06 51°13.662 2°55.961 22.4743 0.076399 0.399331 -0.965744
2010-08-05 03:42:10 51°13.662 2°55.961 22.4744 0.076399 0.399337 -1.000568
2010-08-05 03:42:15 51°13.662 2°55.961 22.4745 0.076399 0.399337 -1.000568
2010-08-05 03:42:20 51°13.662 2°55.961 22.4747 0.076399 0.399337 -1.000568
2010-08-05 03:42:25 51°13.662 2°55.961 22.4749 0.076399 0.399337 -0.965744
2010-08-05 03:42:30 51°13.662 2°55.961 22.4749 0.076399 0.399337 -0.965744
2010-08-05 03:42:35 51°13.662 2°55.961 22.4744 0.076399 0.399337 -1.000568
2010-08-05 03:42:40 51°13.662 2°55.961 22.4748 0.076399 0.399343 -1.000568
2010-08-05 03:42:45 51°13.662 2°55.961 22.4742 0.076399 0.399337 -1.000568
2010-08-05 03:42:50 51°13.662 2°55.961 22.4742 0.076399 0.399337 -1.000568
2010-08-05 03:42:55 51°13.662 2°55.961 22.4745 0.076399 0.399343 -0.965744
2010-08-05 03:43:00 51°13.662 2°55.961 22.4737 0.076399 0.399343 -1.000568
2010-08-05 03:43:05 51°13.662 2°55.961 22.4737 0.076399 0.399349 -1.000568
2010-08-05 03:43:11 51°13.662 2°55.961 22.4742 0.076399 0.399343 -1.000568
2010-08-05 03:43:15 51°13.662 2°55.961 22.4741 0.076399 0.399349 -0.965744
2010-08-05 03:43:20 51°13.662 2°55.961 22.4736 0.076399 0.399349 -0.965744
2010-08-05 03:43:25 51°13.662 2°55.961 22.474 0.076399 0.399343 -0.965744
2010-08-05 03:43:31 51°13.663 2°55.961 22.4735 0.076399 0.399343 -1.000568
2010-08-05 03:43:35 51°13.663 2°55.961 22.474 0.076399 0.399349 -1.000568
2010-08-05 03:43:40 51°13.663 2°55.961 22.474 0.076399 0.399355 -0.965744
2010-08-05 03:43:45 51°13.663 2°55.961 22.4738 0.076399 0.399349 -1.000568
2010-08-05 03:43:50 51°13.663 2°55.961 22.4734 0.076399 0.399349 -1.000568
2010-08-05 03:43:55 51°13.663 2°55.961 22.4738 0.076399 0.399355 -1.000568
2010-08-05 03:44:00 51°13.663 2°55.961 22.4742 0.076399 0.399355 -0.965744
2010-08-05 03:44:05 51°13.663 2°55.961 22.4745 0.076399 0.399355 -0.965744
2010-08-05 03:44:10 51°13.663 2°55.961 22.4742 0.076399 0.399355 -1.000568
2010-08-05 03:44:15 51°13.663 2°55.961 22.4741 0.076399 0.399361 -0.965744
2010-08-05 03:44:21 51°13.663 2°55.961 22.4742 0.076399 0.399361 -0.965744
2010-08-05 03:44:25 51°13.663 2°55.961 22.4742 0.076399 0.399355 -1.000568
2010-08-05 03:44:30 51°13.663 2°55.961 22.474 0.076399 0.399355 -0.965744
2010-08-05 03:44:35 51°13.663 2°55.961 22.474 0.076399 0.399355 -1.000568
2010-08-05 03:44:41 51°13.663 2°55.961 22.4735 0.076399 0.399361 -0.965744
2010-08-05 03:44:46 51°13.663 2°55.96 22.4733 0.076399 0.399361 -0.965744
2010-08-05 03:44:50 51°13.663 2°55.96 22.4726 0.076399 0.399361 -0.965744
2010-08-05 03:44:55 51°13.663 2°55.96 22.4732 0.076399 0.399361 -1.000568
2010-08-05 03:45:00 51°13.663 2°55.96 22.473 0.076399 0.399361 -1.000568
2010-08-05 03:45:05 51°13.663 2°55.96 22.4732 0.076399 0.399367 -1.000568
2010-08-05 03:45:10 51°13.663 2°55.96 22.4734 0.076399 0.399367 -0.965744
2010-08-05 03:45:15 51°13.663 2°55.96 22.4733 0.076399 0.399367 -0.965744
2010-08-05 03:45:20 51°13.663 2°55.96 22.4733 0.076399 0.399367 -0.965744
2010-08-05 03:45:25 51°13.663 2°55.96 22.4731 0.076399 0.399367 -1.000568
2010-08-05 03:45:30 51°13.663 2°55.96 22.4735 0.076399 0.399361 -1.000568
2010-08-05 03:45:35 51°13.663 2°55.96 22.4732 0.076399 0.399367 -1.000568
2010-08-05 03:45:40 51°13.663 2°55.96 22.4733 0.076399 0.399373 -1.000568
2010-08-05 03:45:45 51°13.663 2°55.96 22.4733 0.076399 0.399373 -1.000568
2010-08-05 03:45:51 51°13.663 2°55.96 22.4729 0.076399 0.399373 -1.000568
2010-08-05 03:45:55 51°13.663 2°55.96 22.4734 0.076399 0.399373 -0.965744
2010-08-05 03:46:00 51°13.663 2°55.96 22.4732 0.076399 0.399373 -1.000568
2010-08-05 03:46:05 51°13.663 2°55.96 22.4731 0.076399 0.399379 -0.965744
2010-08-05 03:46:11 51°13.663 2°55.96 22.4729 0.076399 0.399373 -1.000568
2010-08-05 03:46:15 51°13.663 2°55.96 22.4728 0.076399 0.399373 -1.000568
2010-08-05 03:46:20 51°13.663 2°55.96 22.4729 0.076399 0.399373 -1.000568
2010-08-05 03:46:25 51°13.663 2°55.96 22.4724 0.076399 0.399373 -0.965744
2010-08-05 03:46:30 51°13.663 2°55.96 22.4723 0.076399 0.399379 -0.965744
2010-08-05 03:46:35 51°13.663 2°55.96 22.4724 0.076399 0.399385 -1.000568
2010-08-05 03:46:40 51°13.663 2°55.96 22.472 0.076399 0.399379 -1.000568
2010-08-05 03:46:45 51°13.663 2°55.96 22.472 0.076399 0.399385 -0.965744
2010-08-05 03:46:50 51°13.663 2°55.96 22.4719 0.076399 0.399385 -0.965744
2010-08-05 03:46:55 51°13.663 2°55.96 22.4721 0.076399 0.399385 -0.965744
2010-08-05 03:47:00 51°13.663 2°55.96 22.472 0.076399 0.399385 -0.965744
2010-08-05 03:47:05 51°13.663 2°55.96 22.4723 0.076399 0.399385 -0.965744
2010-08-05 03:47:10 51°13.663 2°55.96 22.4722 0.076399 0.399385 -0.965744
2010-08-05 03:47:15 51°13.663 2°55.96 22.4715 0.076399 0.399391 -0.965744
2010-08-05 03:47:20 51°13.663 2°55.96 22.4715 0.076399 0.399391 -0.965744
2010-08-05 03:47:26 51°13.663 2°55.96 22.4716 0.076399 0.399391 -0.965744
2010-08-05 03:47:30 51°13.663 2°55.96 22.4714 0.076399 0.399385 -1.000568
2010-08-05 03:47:35 51°13.663 2°55.96 22.4713 0.076399 0.399391 -1.000568
2010-08-05 03:47:40 51°13.663 2°55.96 22.4712 0.076399 0.399391 -1.000568
2010-08-05 03:47:45 51°13.663 2°55.96 22.4709 0.076399 0.399391 -1.000568
2010-08-05 03:47:50 51°13.663 2°55.96 22.4709 0.076399 0.399391 -1.000568
2010-08-05 03:47:55 51°13.663 2°55.96 22.4708 0.076399 0.399397 -1.000568
2010-08-05 03:48:00 51°13.663 2°55.96 22.4707 0.076399 0.399397 -1.000568
2010-08-05 03:48:05 51°13.663 2°55.96 22.4707 0.076399 0.399397 -1.000568
2010-08-05 03:48:10 51°13.663 2°55.96 22.4708 0.076399 0.399397 -0.965744
2010-08-05 03:48:16 51°13.663 2°55.96 22.4713 0.076399 0.399397 -1.000568
2010-08-05 03:48:20 51°13.663 2°55.96 22.4704 0.076399 0.399397 -1.000568
2010-08-05 03:48:25 51°13.663 2°55.96 22.4702 0.076399 0.399397 -0.965744
2010-08-05 03:48:30 51°13.663 2°55.96 22.4697 0.076399 0.399403 -1.000568
2010-08-05 03:48:35 51°13.663 2°55.96 22.4694 0.076399 0.399409 -1.000568
2010-08-05 03:48:40 51°13.663 2°55.96 22.4691 0.076399 0.399403 -1.000568
2010-08-05 03:48:45 51°13.663 2°55.96 22.4699 0.076399 0.399409 -1.035392
2010-08-05 03:48:50 51°13.663 2°55.96 22.4699 0.076399 0.399409 -1.035392
2010-08-05 03:48:55 51°13.663 2°55.96 22.4697 0.076399 0.399403 -1.000568
2010-08-05 03:49:00 51°13.663 2°55.96 22.4698 0.076399 0.399409 -1.000568
2010-08-05 03:49:05 51°13.663 2°55.96 22.4698 0.076399 0.399403 -0.965744
2010-08-05 03:49:10 51°13.663 2°55.96 22.4698 0.076399 0.399409 -1.000568
2010-08-05 03:49:15 51°13.663 2°55.96 22.4696 0.076399 0.399409 -0.965744
2010-08-05 03:49:20 51°13.663 2°55.96 22.4701 0.076399 0.399409 -0.965744
2010-08-05 03:49:25 51°13.663 2°55.96 22.4701 0.076399 0.399415 -0.965744
2010-08-05 03:49:30 51°13.663 2°55.96 22.4698 0.076399 0.399409 -1.035392
2010-08-05 03:49:35 51°13.662 2°55.96 22.4702 0.076399 0.399409 -1.000568
2010-08-05 03:49:41 51°13.662 2°55.96 22.4701 0.076399 0.399415 -0.965744
2010-08-05 03:49:46 51°13.662 2°55.96 22.4698 0.076399 0.399409 -1.000568
2010-08-05 03:49:50 51°13.662 2°55.96 22.4697 0.076399 0.399409 -1.000568
2010-08-05 03:49:55 51°13.662 2°55.96 22.4697 0.076399 0.399421 -0.965744
2010-08-05 03:50:00 51°13.662 2°55.96 22.4701 0.076399 0.399421 -1.000568
2010-08-05 03:50:05 51°13.662 2°55.96 22.4704 0.076399 0.399421 -1.000568
2010-08-05 03:50:10 51°13.662 2°55.96 22.4703 0.076399 0.399421 -1.000568
2010-08-05 03:50:15 51°13.662 2°55.96 22.4697 0.076399 0.399421 -1.000568
2010-08-05 03:50:20 51°13.662 2°55.96 22.4695 0.076399 0.399421 -1.000568
2010-08-05 03:50:25 51°13.662 2°55.96 22.4699 0.076399 0.399421 -0.965744
2010-08-05 03:50:30 51°13.662 2°55.96 22.4696 0.076399 0.399421 -1.035392
2010-08-05 03:50:35 51°13.662 2°55.96 22.4687 0.076399 0.399421 -1.000568
2010-08-05 03:50:40 51°13.662 2°55.96 22.4691 0.076399 0.399421 -1.000568
2010-08-05 03:50:45 51°13.662 2°55.96 22.4685 0.076399 0.399427 -0.965744
2010-08-05 03:50:50 51°13.662 2°55.96 22.4683 0.076399 0.399427 -0.965744
2010-08-05 03:50:55 51°13.662 2°55.96 22.4682 0.076399 0.399427 -1.000568
2010-08-05 03:51:00 51°13.662 2°55.96 22.4684 0.076399 0.399421 -1.000568
2010-08-05 03:51:05 51°13.662 2°55.96 22.4688 0.076399 0.399427 -1.000568
2010-08-05 03:51:10 51°13.662 2°55.96 22.4688 0.076399 0.399433 -1.000568
2010-08-05 03:51:15 51°13.662 2°55.96 22.4692 0.076399 0.399433 -0.965744
2010-08-05 03:51:20 51°13.662 2°55.96 22.469 0.076399 0.399433 -0.965744
2010-08-05 03:51:25 51°13.662 2°55.96 22.4691 0.076399 0.399433 -1.000568
2010-08-05 03:51:30 51°13.662 2°55.96 22.4688 0.076399 0.399433 -1.000568
2010-08-05 03:51:35 51°13.662 2°55.96 22.4687 0.076399 0.399433 -0.965744
2010-08-05 03:51:40 51°13.662 2°55.96 22.4688 0.076399 0.399433 -0.965744
2010-08-05 03:51:45 51°13.662 2°55.96 22.4691 0.076399 0.399433 -0.965744
2010-08-05 03:51:50 51°13.662 2°55.96 22.4688 0.076399 0.399433 -0.965744
2010-08-05 03:51:55 51°13.662 2°55.96 22.469 0.076399 0.399433 -1.000568
2010-08-05 03:52:00 51°13.662 2°55.96 22.4692 0.076399 0.399439 -1.000568
2010-08-05 03:52:05 51°13.662 2°55.96 22.469 0.076399 0.399433 -0.965744
2010-08-05 03:52:10 51°13.662 2°55.96 22.4692 0.076399 0.399439 -0.965744
2010-08-05 03:52:15 51°13.662 2°55.96 22.4688 0.076399 0.399445 -0.965744
2010-08-05 03:52:21 51°13.662 2°55.96 22.4687 0.076399 0.399445 -0.965744
2010-08-05 03:52:26 51°13.662 2°55.96 22.4689 0.076399 0.399439 -1.000568
2010-08-05 03:52:30 51°13.662 2°55.96 22.4683 0.076399 0.399439 -0.965744
2010-08-05 03:52:35 51°13.662 2°55.96 22.4682 0.076399 0.399445 -1.000568
2010-08-05 03:52:40 51°13.662 2°55.96 22.4676 0.076399 0.399445 -1.000568
2010-08-05 03:52:45 51°13.662 2°55.96 22.4671 0.076399 0.399445 -1.000568
2010-08-05 03:52:50 51°13.662 2°55.96 22.4672 0.076399 0.399445 -0.965744
2010-08-05 03:52:55 51°13.662 2°55.96 22.4668 0.076399 0.399445 -0.965744
2010-08-05 03:53:00 51°13.662 2°55.96 22.4672 0.076399 0.399445 -0.965744
2010-08-05 03:53:05 51°13.662 2°55.96 22.4674 0.076399 0.399445 -1.000568
2010-08-05 03:53:10 51°13.662 2°55.96 22.4668 0.076399 0.399445 -1.000568
2010-08-05 03:53:15 51°13.662 2°55.96 22.4668 0.076399 0.399445 -1.000568
2010-08-05 03:53:20 51°13.662 2°55.96 22.4658 0.076399 0.399445 -1.000568
2010-08-05 03:53:25 51°13.662 2°55.96 22.4655 0.076399 0.399452 -0.965744
2010-08-05 03:53:30 51°13.662 2°55.96 22.4656 0.076399 0.399452 -0.965744
2010-08-05 03:53:35 51°13.662 2°55.96 22.4661 0.076399 0.399452 -1.000568
2010-08-05 03:53:40 51°13.663 2°55.96 22.4662 0.076399 0.399452 -1.000568
2010-08-05 03:53:45 51°13.663 2°55.96 22.4661 0.076399 0.399452 -1.000568
2010-08-05 03:53:50 51°13.663 2°55.96 22.4667 0.076399 0.399452 -1.000568
2010-08-05 03:53:55 51°13.663 2°55.96 22.4662 0.076399 0.399452 -1.000568
2010-08-05 03:54:00 51°13.663 2°55.96 22.4658 0.076399 0.399458 -0.965744
2010-08-05 03:54:05 51°13.663 2°55.96 22.4655 0.076399 0.399464 -1.000568
2010-08-05 03:54:10 51°13.663 2°55.96 22.4658 0.076399 0.399458 -1.000568
2010-08-05 03:54:15 51°13.663 2°55.96 22.466 0.076399 0.399464 -1.000568
2010-08-05 03:54:20 51°13.663 2°55.96 22.4668 0.076399 0.399464 -1.000568
2010-08-05 03:54:25 51°13.663 2°55.96 22.4662 0.076399 0.399458 -0.965744
2010-08-05 03:54:31 51°13.663 2°55.96 22.466 0.076399 0.399464 -1.000568
2010-08-05 03:54:35 51°13.663 2°55.96 22.4662 0.076399 0.39947 -0.965744
2010-08-05 03:54:40 51°13.663 2°55.96 22.4665 0.076399 0.39947 -1.000568
2010-08-05 03:54:45 51°13.663 2°55.96 22.4668 0.076399 0.399464 -0.965744
2010-08-05 03:54:50 51°13.663 2°55.96 22.4668 0.076399 0.399464 -0.965744
2010-08-05 03:54:55 51°13.663 2°55.96 22.4668 0.076399 0.39947 -0.965744
2010-08-05 03:55:00 51°13.663 2°55.96 22.4668 0.076399 0.39947 -1.000568
2010-08-05 03:55:05 51°13.663 2°55.96 22.467 0.076399 0.399464 -1.000568
2010-08-05 03:55:10 51°13.663 2°55.96 22.4668 0.076399 0.39947 -0.965744
2010-08-05 03:55:15 51°13.663 2°55.96 22.4666 0.076399 0.39947 -1.000568
2010-08-05 03:55:20 51°13.663 2°55.96 22.4665 0.076399 0.39947 -1.000568
2010-08-05 03:55:25 51°13.663 2°55.96 22.4663 0.076399 0.39947 -0.965744
2010-08-05 03:55:30 51°13.663 2°55.96 22.466 0.076399 0.39947 -1.000568
2010-08-05 03:55:35 51°13.663 2°55.96 22.4659 0.076399 0.399476 -0.965744
2010-08-05 03:55:40 51°13.663 2°55.96 22.4657 0.076399 0.399476 -0.965744
2010-08-05 03:55:45 51°13.663 2°55.96 22.4653 0.076399 0.399476 -0.965744
2010-08-05 03:55:50 51°13.662 2°55.96 22.4655 0.076399 0.399476 -0.965744
2010-08-05 03:55:55 51°13.663 2°55.96 22.4659 0.076399 0.399476 -1.000568
2010-08-05 03:56:00 51°13.663 2°55.96 22.4658 0.076399 0.399476 -0.965744
2010-08-05 03:56:05 51°13.663 2°55.96 22.4654 0.076399 0.399476 -0.965744
2010-08-05 03:56:10 51°13.663 2°55.961 22.4653 0.076399 0.399482 -0.965744
2010-08-05 03:56:15 51°13.663 2°55.961 22.4655 0.076399 0.399482 -1.000568
2010-08-05 03:56:20 51°13.663 2°55.961 22.4651 0.076399 0.399482 -1.000568
2010-08-05 03:56:25 51°13.662 2°55.961 22.4651 0.076399 0.399482 -0.965744
2010-08-05 03:56:30 51°13.662 2°55.961 22.4649 0.076399 0.399482 -1.000568
2010-08-05 03:56:35 51°13.662 2°55.961 22.4653 0.076399 0.399482 -1.035392
2010-08-05 03:56:40 51°13.662 2°55.961 22.4653 0.076399 0.399482 -1.000568
2010-08-05 03:56:45 51°13.662 2°55.961 22.4651 0.076399 0.399488 -1.035392
2010-08-05 03:56:50 51°13.662 2°55.961 22.4658 0.076399 0.399488 -1.035392
2010-08-05 03:56:55 51°13.662 2°55.961 22.4656 0.076399 0.399488 -1.000568
2010-08-05 03:57:00 51°13.662 2°55.961 22.4655 0.076399 0.399488 -0.965744
2010-08-05 03:57:05 51°13.662 2°55.961 22.466 0.076399 0.399494 -1.000568
2010-08-05 03:57:10 51°13.662 2°55.961 22.4659 0.076399 0.399488 -0.965744
2010-08-05 03:57:15 51°13.662 2°55.961 22.4664 0.076399 0.399488 -0.965744
2010-08-05 03:57:20 51°13.662 2°55.961 22.4658 0.076399 0.399488 -0.965744
2010-08-05 03:57:25 51°13.662 2°55.961 22.4663 0.076399 0.399488 -1.000568
2010-08-05 03:57:30 51°13.662 2°55.961 22.4659 0.076399 0.399488 -1.000568
2010-08-05 03:57:35 51°13.662 2°55.961 22.4661 0.076399 0.399488 -1.000568
2010-08-05 03:57:40 51°13.662 2°55.961 22.4662 0.076399 0.399494 -0.965744
2010-08-05 03:57:45 51°13.662 2°55.961 22.4663 0.076399 0.399494 -0.965744
2010-08-05 03:57:50 51°13.662 2°55.961 22.466 0.076399 0.399494 -0.965744
2010-08-05 03:57:55 51°13.662 2°55.961 22.4656 0.076399 0.3995 -0.965744
2010-08-05 03:58:00 51°13.662 2°55.961 22.4655 0.076399 0.3995 -1.000568
2010-08-05 03:58:05 51°13.662 2°55.961 22.4656 0.076399 0.3995 -0.965744
2010-08-05 03:58:10 51°13.662 2°55.961 22.466 0.076399 0.3995 -0.965744
2010-08-05 03:58:15 51°13.662 2°55.961 22.4655 0.076399 0.399506 -1.035392
2010-08-05 03:58:20 51°13.662 2°55.961 22.4657 0.076399 0.399506 -1.035392
2010-08-05 03:58:25 51°13.662 2°55.961 22.4656 0.076399 0.3995 -1.000568
2010-08-05 03:58:30 51°13.662 2°55.961 22.4655 0.076399 0.399506 -1.000568
2010-08-05 03:58:36 51°13.662 2°55.961 22.4655 0.076399 0.399506 -1.000568
2010-08-05 03:58:40 51°13.662 2°55.961 22.4655 0.076399 0.399506 -0.965744
2010-08-05 03:58:45 51°13.662 2°55.961 22.4655 0.076399 0.399506 -0.965744
2010-08-05 03:58:50 51°13.662 2°55.961 22.4655 0.076399 0.399506 -1.000568
2010-08-05 03:58:55 51°13.662 2°55.961 22.4655 0.076399 0.399512 -0.965744
2010-08-05 03:59:00 51°13.662 2°55.961 22.4655 0.076399 0.399512 -0.965744
2010-08-05 03:59:05 51°13.662 2°55.961 22.4654 0.076399 0.399512 -0.965744
2010-08-05 03:59:10 51°13.662 2°55.961 22.465 0.076399 0.399512 -1.000568
2010-08-05 03:59:15 51°13.662 2°55.961 22.4649 0.076399 0.399512 -1.000568
2010-08-05 03:59:20 51°13.662 2°55.961 22.4645 0.076399 0.399512 -1.000568
2010-08-05 03:59:25 51°13.662 2°55.961 22.4648 0.076399 0.399518 -0.965744
2010-08-05 03:59:31 51°13.662 2°55.961 22.4646 0.076399 0.399518 -1.000568
2010-08-05 03:59:35 51°13.662 2°55.961 22.4641 0.076399 0.399518 -1.000568
2010-08-05 03:59:40 51°13.662 2°55.961 22.4642 0.076399 0.399512 -1.000568
2010-08-05 03:59:45 51°13.662 2°55.961 22.4638 0.076399 0.399518 -1.000568
2010-08-05 03:59:50 51°13.662 2°55.961 22.4633 0.076399 0.399518 -1.000568
2010-08-05 03:59:55 51°13.662 2°55.961 22.4634 0.076399 0.399518 -1.000568
2010-08-05 04:00:00 51°13.662 2°55.961 22.4635 0.076399 0.399524 -1.000568
2010-08-05 04:00:05 51°13.662 2°55.961 22.4634 0.076399 0.399518 -1.000568
2010-08-05 04:00:10 51°13.662 2°55.961 22.4632 0.076399 0.399524 -1.000568
2010-08-05 04:00:15 51°13.662 2°55.961 22.4632 0.076399 0.399518 -1.000568
2010-08-05 04:00:21 51°13.662 2°55.962 22.4632 0.076399 0.399518 -1.000568
2010-08-05 04:00:26 51°13.662 2°55.962 22.4629 0.076399 0.399524 -1.000568
2010-08-05 04:00:30 51°13.662 2°55.962 22.4634 0.076399 0.399524 -1.000568
2010-08-05 04:00:35 51°13.662 2°55.962 22.4635 0.076399 0.399524 -1.000568
2010-08-05 04:00:40 51°13.662 2°55.962 22.4636 0.076399 0.399524 -0.965744
2010-08-05 04:00:46 51°13.662 2°55.962 22.4637 0.076399 0.39953 -0.965744
2010-08-05 04:00:50 51°13.662 2°55.962 22.4635 0.076399 0.39953 -0.965744
2010-08-05 04:00:55 51°13.662 2°55.962 22.4632 0.076399 0.39953 -1.000568
2010-08-05 04:01:00 51°13.662 2°55.962 22.463 0.076399 0.39953 -0.965744
2010-08-05 04:01:05 51°13.662 2°55.962 22.4631 0.076399 0.39953 -1.000568
2010-08-05 04:01:10 51°13.662 2°55.962 22.463 0.076399 0.399536 -1.000568
2010-08-05 04:01:16 51°13.662 2°55.962 22.4631 0.076399 0.399536 -1.000568
2010-08-05 04:01:20 51°13.662 2°55.962 22.4631 0.076399 0.399536 -1.000568
2010-08-05 04:01:25 51°13.662 2°55.962 22.4627 0.076399 0.399536 -0.965744
2010-08-05 04:01:30 51°13.662 2°55.962 22.463 0.076399 0.399536 -0.965744
2010-08-05 04:01:35 51°13.662 2°55.962 22.4628 0.076399 0.399536 -1.000568
2010-08-05 04:01:40 51°13.662 2°55.962 22.463 0.076399 0.399536 -1.000568
2010-08-05 04:01:45 51°13.662 2°55.962 22.4632 0.076399 0.399536 -1.000568
2010-08-05 04:01:51 51°13.662 2°55.962 22.4627 0.076399 0.399536 -1.000568
2010-08-05 04:01:55 51°13.662 2°55.962 22.463 0.076399 0.399542 -0.965744
2010-08-05 04:02:00 51°13.662 2°55.963 22.4625 0.076399 0.399542 -0.965744
2010-08-05 04:02:05 51°13.662 2°55.963 22.4625 0.076399 0.399542 -1.000568
2010-08-05 04:02:11 51°13.662 2°55.963 22.4626 0.076399 0.399542 -1.000568
2010-08-05 04:02:15 51°13.662 2°55.963 22.4621 0.076399 0.399542 -1.000568
2010-08-05 04:02:20 51°13.662 2°55.963 22.4627 0.076399 0.399542 -1.000568
2010-08-05 04:02:25 51°13.662 2°55.963 22.4622 0.076399 0.399548 -0.965744
2010-08-05 04:02:31 51°13.662 2°55.963 22.4621 0.076399 0.399548 -1.000568
2010-08-05 04:02:35 51°13.662 2°55.963 22.4622 0.076399 0.399548 -1.000568
2010-08-05 04:02:40 51°13.662 2°55.963 22.4626 0.076399 0.399548 -1.000568
2010-08-05 04:02:45 51°13.662 2°55.963 22.4619 0.076399 0.399554 -0.965744
2010-08-05 04:02:50 51°13.662 2°55.963 22.4619 0.076399 0.399554 -0.965744
2010-08-05 04:02:55 51°13.662 2°55.963 22.4622 0.076399 0.399554 -0.965744
2010-08-05 04:03:01 51°13.662 2°55.963 22.4619 0.076399 0.399548 -1.000568
2010-08-05 04:03:06 51°13.662 2°55.963 22.462 0.076399 0.399548 -0.965744
2010-08-05 04:03:10 51°13.662 2°55.963 22.4621 0.076399 0.399554 -0.965744
2010-08-05 04:03:15 51°13.662 2°55.963 22.462 0.076399 0.399554 -0.965744
2010-08-05 04:03:21 51°13.662 2°55.963 22.4619 0.076399 0.399554 -0.965744
2010-08-05 04:03:26 51°13.662 2°55.963 22.4618 0.076399 0.399554 -1.000568
2010-08-05 04:03:30 51°13.662 2°55.963 22.4619 0.076399 0.399554 -1.000568
2010-08-05 04:03:35 51°13.662 2°55.963 22.4617 0.076399 0.39956 -1.000568
2010-08-05 04:03:40 51°13.662 2°55.963 22.4616 0.076399 0.39956 -1.000568
2010-08-05 04:03:45 51°13.662 2°55.963 22.4612 0.076399 0.39956 -1.000568
2010-08-05 04:03:50 51°13.662 2°55.963 22.4609 0.076399 0.39956 -1.000568
2010-08-05 04:03:55 51°13.662 2°55.963 22.4611 0.076399 0.399554 -1.000568
2010-08-05 04:04:00 51°13.662 2°55.963 22.4614 0.076399 0.39956 -1.000568
2010-08-05 04:04:05 51°13.662 2°55.963 22.4612 0.076399 0.399567 -0.965744
2010-08-05 04:04:10 51°13.662 2°55.963 22.4613 0.076399 0.399573 -0.965744
2010-08-05 04:04:16 51°13.662 2°55.963 22.4614 0.076399 0.399567 -1.000568
2010-08-05 04:04:20 51°13.662 2°55.963 22.4614 0.076399 0.399567 -1.000568
2010-08-05 04:04:25 51°13.662 2°55.963 22.4609 0.076399 0.399567 -0.965744
2010-08-05 04:04:30 51°13.662 2°55.963 22.4609 0.076399 0.399573 -0.965744
2010-08-05 04:04:35 51°13.662 2°55.963 22.4613 0.076399 0.399567 -1.000568
2010-08-05 04:04:40 51°13.662 2°55.963 22.4614 0.076399 0.399573 -1.000568
2010-08-05 04:04:45 51°13.662 2°55.963 22.4615 0.076399 0.39956 -0.965744
2010-08-05 04:04:51 51°13.662 2°55.963 22.4611 0.076399 0.39956 -0.965744
2010-08-05 04:04:55 51°13.662 2°55.963 22.4612 0.076399 0.399573 -1.000568
2010-08-05 04:05:00 51°13.662 2°55.962 22.4611 0.076399 0.399567 -0.965744
2010-08-05 04:05:05 51°13.662 2°55.962 22.461 0.076399 0.399573 -1.000568
2010-08-05 04:05:11 51°13.662 2°55.962 22.4604 0.076399 0.399579 -1.000568
2010-08-05 04:05:15 51°13.662 2°55.962 22.4604 0.076399 0.399573 -1.000568
2010-08-05 04:05:20 51°13.662 2°55.962 22.4603 0.076399 0.399573 -1.000568
2010-08-05 04:05:25 51°13.662 2°55.962 22.46 0.076399 0.399579 -0.965744
2010-08-05 04:05:31 51°13.662 2°55.962 22.4604 0.076399 0.399579 -0.965744
2010-08-05 04:05:35 51°13.662 2°55.962 22.46 0.076399 0.399579 -1.000568
2010-08-05 04:05:40 51°13.662 2°55.962 22.4599 0.076399 0.399579 -0.965744
2010-08-05 04:05:45 51°13.662 2°55.962 22.4597 0.076399 0.399579 -1.000568
2010-08-05 04:05:50 51°13.662 2°55.962 22.4602 0.076399 0.399579 -1.000568
2010-08-05 04:05:55 51°13.662 2°55.962 22.4596 0.076399 0.399579 -0.965744
2010-08-05 04:06:01 51°13.662 2°55.962 22.4599 0.076399 0.399585 -1.000568
2010-08-05 04:06:05 51°13.662 2°55.962 22.4601 0.076399 0.399585 -1.000568
2010-08-05 04:06:10 51°13.662 2°55.962 22.46 0.076399 0.399579 -1.000568
2010-08-05 04:06:15 51°13.662 2°55.962 22.46 0.076399 0.399591 -1.000568
2010-08-05 04:06:20 51°13.662 2°55.962 22.46 0.076399 0.399591 -1.000568
2010-08-05 04:06:26 51°13.662 2°55.962 22.4602 0.076399 0.399585 -1.000568
2010-08-05 04:06:30 51°13.662 2°55.962 22.4599 0.076399 0.399591 -0.965744
2010-08-05 04:06:36 51°13.662 2°55.962 22.4598 0.076399 0.399585 -0.965744
2010-08-05 04:06:40 51°13.662 2°55.962 22.4596 0.076399 0.399591 -0.965744
2010-08-05 04:06:45 51°13.662 2°55.962 22.4597 0.076399 0.399591 -1.000568
2010-08-05 04:06:50 51°13.662 2°55.962 22.4594 0.076399 0.399591 -1.000568
2010-08-05 04:06:55 51°13.662 2°55.962 22.4593 0.076399 0.399591 -0.965744
2010-08-05 04:07:00 51°13.662 2°55.962 22.4591 0.076399 0.399591 -0.965744
2010-08-05 04:07:05 51°13.662 2°55.962 22.4594 0.076399 0.399591 -1.000568
2010-08-05 04:07:10 51°13.662 2°55.962 22.4595 0.076399 0.399603 -1.000568
2010-08-05 04:07:15 51°13.662 2°55.962 22.4589 0.076399 0.399597 -0.965744
2010-08-05 04:07:20 51°13.662 2°55.962 22.4594 0.076399 0.399597 -0.965744
2010-08-05 04:07:25 51°13.662 2°55.962 22.4595 0.076399 0.399597 -1.000568
2010-08-05 04:07:30 51°13.662 2°55.962 22.4593 0.076399 0.399597 -1.000568
2010-08-05 04:07:35 51°13.662 2°55.962 22.4598 0.076399 0.399597 -1.000568
2010-08-05 04:07:40 51°13.662 2°55.962 22.4594 0.076399 0.399603 -1.000568
2010-08-05 04:07:45 51°13.662 2°55.962 22.4595 0.076399 0.399597 -0.965744
2010-08-05 04:07:51 51°13.662 2°55.962 22.46 0.076399 0.399597 -0.965744
2010-08-05 04:07:55 51°13.662 2°55.962 22.4595 0.076399 0.399603 -0.965744
2010-08-05 04:08:00 51°13.662 2°55.962 22.4593 0.076399 0.399603 -1.000568
2010-08-05 04:08:05 51°13.662 2°55.962 22.4594 0.076399 0.399603 -0.965744
2010-08-05 04:08:10 51°13.662 2°55.962 22.4595 0.076399 0.399609 -0.965744
2010-08-05 04:08:15 51°13.662 2°55.962 22.4594 0.076399 0.399609 -1.000568
2010-08-05 04:08:20 51°13.662 2°55.962 22.4591 0.076399 0.399609 -1.000568
2010-08-05 04:08:25 51°13.662 2°55.962 22.4591 0.076399 0.399609 -1.000568
2010-08-05 04:08:30 51°13.662 2°55.962 22.4594 0.076399 0.399609 -0.965744
2010-08-05 04:08:35 51°13.662 2°55.962 22.4594 0.076399 0.399609 -1.000568
2010-08-05 04:08:40 51°13.662 2°55.962 22.4592 0.076399 0.399609 -0.965744
2010-08-05 04:08:45 51°13.662 2°55.962 22.4593 0.076399 0.399609 -1.000568
2010-08-05 04:08:50 51°13.662 2°55.962 22.4587 0.076399 0.399609 -1.000568
2010-08-05 04:08:55 51°13.662 2°55.962 22.4588 0.076399 0.399609 -1.000568
2010-08-05 04:09:00 51°13.662 2°55.962 22.459 0.076399 0.399615 -0.965744
2010-08-05 04:09:05 51°13.662 2°55.962 22.459 0.076399 0.399615 -0.965744
2010-08-05 04:09:10 51°13.662 2°55.962 22.4586 0.076399 0.399615 -0.965744
2010-08-05 04:09:15 51°13.662 2°55.962 22.4588 0.076399 0.399615 -0.965744
2010-08-05 04:09:20 51°13.662 2°55.962 22.4588 0.076399 0.399615 -0.965744
2010-08-05 04:09:25 51°13.662 2°55.962 22.4588 0.076399 0.399615 -0.965744
2010-08-05 04:09:30 51°13.662 2°55.962 22.4588 0.076399 0.399615 -1.000568
2010-08-05 04:09:35 51°13.662 2°55.962 22.4587 0.076399 0.399615 -1.035392
2010-08-05 04:09:40 51°13.662 2°55.962 22.4582 0.076399 0.399621 -1.000568
2010-08-05 04:09:45 51°13.662 2°55.962 22.4584 0.076399 0.399621 -0.965744
2010-08-05 04:09:50 51°13.662 2°55.962 22.4582 0.076399 0.399621 -0.965744
2010-08-05 04:09:55 51°13.662 2°55.962 22.458 0.076399 0.399621 -0.965744
2010-08-05 04:10:00 51°13.662 2°55.962 22.458 0.076399 0.399621 -1.000568
2010-08-05 04:10:05 51°13.662 2°55.962 22.458 0.076399 0.399627 -1.000568
2010-08-05 04:10:10 51°13.662 2°55.962 22.458 0.076399 0.399627 -1.000568
2010-08-05 04:10:15 51°13.662 2°55.962 22.4576 0.076399 0.399621 -0.965744
2010-08-05 04:10:20 51°13.662 2°55.961 22.4577 0.076399 0.399621 -0.965744
2010-08-05 04:10:25 51°13.662 2°55.961 22.4577 0.076399 0.399627 -1.000568
2010-08-05 04:10:30 51°13.662 2°55.961 22.4575 0.076399 0.399627 -1.000568
2010-08-05 04:10:35 51°13.662 2°55.961 22.4577 0.076399 0.399627 -1.000568
2010-08-05 04:10:40 51°13.662 2°55.961 22.4572 0.076399 0.399633 -0.965744
2010-08-05 04:10:45 51°13.662 2°55.961 22.4577 0.076399 0.399627 -1.000568
2010-08-05 04:10:50 51°13.662 2°55.961 22.4577 0.076399 0.399627 -1.000568
2010-08-05 04:10:55 51°13.662 2°55.961 22.4574 0.076399 0.399633 -1.000568
2010-08-05 04:11:00 51°13.662 2°55.961 22.4572 0.076399 0.399633 -0.965744
2010-08-05 04:11:05 51°13.662 2°55.961 22.4569 0.076399 0.399627 -0.965744
2010-08-05 04:11:10 51°13.662 2°55.961 22.4571 0.076399 0.399633 -0.965744
2010-08-05 04:11:15 51°13.662 2°55.961 22.4574 0.076399 0.399639 -1.035392
2010-08-05 04:11:20 51°13.663 2°55.961 22.457 0.076399 0.399639 -1.035392
2010-08-05 04:11:25 51°13.662 2°55.961 22.4568 0.076399 0.399633 -1.000568
2010-08-05 04:11:30 51°13.662 2°55.962 22.4572 0.076399 0.399633 -1.000568
2010-08-05 04:11:35 51°13.662 2°55.962 22.4573 0.076399 0.399639 -1.000568
2010-08-05 04:11:40 51°13.662 2°55.961 22.4574 0.076399 0.399639 -1.000568
2010-08-05 04:11:46 51°13.662 2°55.961 22.457 0.076399 0.399639 -1.000568
2010-08-05 04:11:50 51°13.662 2°55.961 22.457 0.076399 0.399639 -1.000568
2010-08-05 04:11:55 51°13.663 2°55.961 22.4574 0.076399 0.399639 -1.000568
2010-08-05 04:12:00 51°13.663 2°55.961 22.4571 0.076399 0.399645 -1.000568
2010-08-05 04:12:05 51°13.663 2°55.961 22.4571 0.076399 0.399639 -1.000568
2010-08-05 04:12:10 51°13.663 2°55.961 22.4568 0.076399 0.399645 -1.000568
2010-08-05 04:12:15 51°13.663 2°55.961 22.4568 0.076399 0.399645 -0.965744
2010-08-05 04:12:20 51°13.663 2°55.961 22.4569 0.076399 0.399645 -0.965744
2010-08-05 04:12:25 51°13.663 2°55.961 22.4568 0.076399 0.399645 -0.965744
2010-08-05 04:12:30 51°13.663 2°55.961 22.4567 0.076399 0.399651 -1.035392
2010-08-05 04:12:35 51°13.663 2°55.961 22.4565 0.076399 0.399651 -1.000568
2010-08-05 04:12:40 51°13.662 2°55.961 22.4567 0.076399 0.399651 -1.000568
2010-08-05 04:12:45 51°13.662 2°55.961 22.4565 0.076399 0.399651 -1.000568
2010-08-05 04:12:50 51°13.663 2°55.96 22.4565 0.076399 0.399651 -1.000568
2010-08-05 04:12:55 51°13.663 2°55.96 22.4563 0.076399 0.399651 -0.965744
2010-08-05 04:13:00 51°13.663 2°55.96 22.4565 0.076399 0.399651 -1.000568
2010-08-05 04:13:05 51°13.663 2°55.96 22.4562 0.076399 0.399651 -1.000568
2010-08-05 04:13:10 51°13.663 2°55.96 22.4565 0.076399 0.399657 -0.965744
2010-08-05 04:13:15 51°13.663 2°55.96 22.4566 0.076399 0.399651 -0.965744
2010-08-05 04:13:20 51°13.663 2°55.96 22.4564 0.076399 0.399651 -0.965744
2010-08-05 04:13:25 51°13.663 2°55.961 22.4564 0.076399 0.399657 -0.965744
2010-08-05 04:13:30 51°13.663 2°55.96 22.4557 0.076399 0.399663 -0.965744
2010-08-05 04:13:35 51°13.663 2°55.96 22.456 0.076399 0.399657 -0.965744
2010-08-05 04:13:40 51°13.662 2°55.96 22.4557 0.076399 0.399657 -0.965744
2010-08-05 04:13:45 51°13.662 2°55.96 22.456 0.076399 0.399657 -1.000568
2010-08-05 04:13:50 51°13.662 2°55.96 22.456 0.076399 0.399657 -1.000568
2010-08-05 04:13:55 51°13.662 2°55.96 22.4557 0.076399 0.399657 -1.000568
2010-08-05 04:14:01 51°13.662 2°55.96 22.4559 0.076399 0.399657 -1.000568
2010-08-05 04:14:06 51°13.662 2°55.96 22.4558 0.076399 0.399657 -0.965744
2010-08-05 04:14:10 51°13.662 2°55.96 22.4555 0.076399 0.399663 -0.965744
2010-08-05 04:14:15 51°13.662 2°55.96 22.4556 0.076399 0.399663 -0.965744
2010-08-05 04:14:20 51°13.662 2°55.96 22.4557 0.076399 0.399663 -0.965744
2010-08-05 04:14:26 51°13.662 2°55.96 22.4552 0.076399 0.399663 -0.965744
2010-08-05 04:14:30 51°13.662 2°55.96 22.4552 0.076399 0.399663 -1.000568
2010-08-05 04:14:53 51°13.663 2°55.96 22.4553 0.076399 0.399669 -1.000568
2010-08-05 04:14:58 51°13.663 2°55.96 22.4553 0.076399 0.399669 -1.000568
2010-08-05 04:16:46 51°13.662 2°55.96 22.4552 0.076399 0.399682 -1.000568
2010-08-05 04:16:47 51°13.662 2°55.96 22.4552 0.076399 0.399682 -1.000568
2010-08-05 04:17:07 51°13.662 2°55.96 22.4552 0.076399 0.399688 -1.000568
2010-08-05 04:17:12 51°13.662 2°55.96 22.4557 0.076399 0.399694 -1.000568
2010-08-05 04:17:18 51°13.662 2°55.96 22.4552 0.076399 0.399694 -1.000568